Time,TemperatureF,DewpointF,PressureIn,WindDirection,WindDirectionDegrees,WindSpeedMPH,WindSpeedGustMPH,Humidity,HourlyPrecipIn,Conditions,Clouds,dailyrainin,SoftwareType,DateUTC
2013-05-10 00:00:00,63.1,57.9,27.90,WNW,292,0.0,0.0,83,0.00,,---,0.00,VWS V14.00,2013-05-10 04:00:00,
2013-05-10 00:01:00,63.1,57.9,27.90,WNW,292,0.0,0.0,83,0.00,,---,0.00,VWS V14.00,2013-05-10 04:01:00,
2013-05-10 00:06:00,63.1,57.9,27.90,WNW,292,0.0,0.0,83,0.00,,---,0.00,VWS V14.00,2013-05-10 04:06:00,
2013-05-10 00:11:00,63.0,58.1,27.90,WNW,292,0.0,0.0,84,0.00,,---,0.00,VWS V14.00,2013-05-10 04:11:00,
2013-05-10 00:16:00,63.0,58.1,27.90,WNW,292,0.0,0.0,84,0.00,,---,0.00,VWS V14.00,2013-05-10 04:16:00,
2013-05-10 00:17:00,63.0,58.1,27.90,WNW,292,0.0,0.0,84,0.00,,---,0.00,VWS V14.00,2013-05-10 04:17:00,
2013-05-10 00:21:00,63.0,58.1,27.90,WNW,292,0.0,0.0,84,0.00,,---,0.00,VWS V14.00,2013-05-10 04:21:00,
2013-05-10 00:22:00,63.0,58.1,27.90,WNW,292,0.0,0.0,84,0.00,,---,0.00,VWS V14.00,2013-05-10 04:22:00,
2013-05-10 00:26:00,63.0,58.1,27.90,WNW,292,0.0,0.0,84,0.00,,---,0.00,VWS V14.00,2013-05-10 04:26:00,
2013-05-10 00:27:00,63.0,58.1,27.90,WNW,292,0.0,0.0,84,0.00,,---,0.00,VWS V14.00,2013-05-10 04:27:00,
2013-05-10 00:28:00,63.0,58.1,27.90,WNW,292,0.0,0.0,84,0.00,,---,0.00,VWS V14.00,2013-05-10 04:28:00,
2013-05-10 00:31:00,63.0,58.1,27.90,WNW,292,0.0,0.0,84,0.00,,---,0.00,VWS V14.00,2013-05-10 04:31:00,
2013-05-10 00:32:00,63.0,58.1,27.90,WNW,292,0.0,0.0,84,0.00,,---,0.00,VWS V14.00,2013-05-10 04:32:00,
2013-05-10 00:33:00,63.0,58.1,27.90,WNW,292,0.0,0.0,84,0.00,,---,0.00,VWS V14.00,2013-05-10 04:33:00,
2013-05-10 00:36:00,63.0,58.1,27.90,WNW,292,0.0,0.0,84,0.00,,---,0.00,VWS V14.00,2013-05-10 04:36:00,
2013-05-10 00:37:00,63.0,58.1,27.90,WNW,292,0.0,0.0,84,0.00,,---,0.00,VWS V14.00,2013-05-10 04:37:00,
2013-05-10 00:38:00,63.0,58.1,27.90,WNW,292,0.0,0.0,84,0.00,,---,0.00,VWS V14.00,2013-05-10 04:38:00,
2013-05-10 00:41:00,63.0,58.1,27.90,WNW,292,0.0,0.0,84,0.00,,---,0.00,VWS V14.00,2013-05-10 04:41:00,
2013-05-10 00:42:00,63.0,58.1,27.90,WNW,292,0.0,0.0,84,0.00,,---,0.00,VWS V14.00,2013-05-10 04:42:00,
2013-05-10 00:43:00,63.0,58.1,27.90,WNW,292,0.0,0.0,84,0.00,,---,0.00,VWS V14.00,2013-05-10 04:43:00,
2013-05-10 00:46:00,62.8,57.9,27.90,WNW,292,0.0,0.0,84,0.00,,---,0.00,VWS V14.00,2013-05-10 04:46:00,
2013-05-10 00:47:00,62.8,57.9,27.90,WNW,292,0.0,0.0,84,0.00,,---,0.00,VWS V14.00,2013-05-10 04:47:00,
2013-05-10 00:48:00,62.8,57.9,27.90,WNW,292,0.0,0.0,84,0.00,,---,0.00,VWS V14.00,2013-05-10 04:48:00,
2013-05-10 00:51:00,62.8,57.9,27.90,WNW,292,0.0,0.0,84,0.00,,---,0.00,VWS V14.00,2013-05-10 04:51:00,
2013-05-10 00:52:00,62.8,57.9,27.90,WNW,292,0.0,0.0,84,0.00,,---,0.00,VWS V14.00,2013-05-10 04:52:00,
2013-05-10 00:53:00,62.8,57.9,27.90,WNW,292,0.0,0.0,84,0.00,,---,0.00,VWS V14.00,2013-05-10 04:53:00,
2013-05-10 00:54:00,62.8,57.9,27.90,WNW,292,0.0,0.0,84,0.00,,---,0.00,VWS V14.00,2013-05-10 04:54:00,
2013-05-10 00:56:00,62.6,57.7,27.90,WNW,292,0.0,0.0,84,0.00,,---,0.00,VWS V14.00,2013-05-10 04:56:00,
2013-05-10 00:58:00,62.6,57.7,27.90,WNW,292,0.0,0.0,84,0.00,,---,0.00,VWS V14.00,2013-05-10 04:58:00,
2013-05-10 00:59:00,62.6,57.7,27.90,WNW,292,0.0,0.0,84,0.00,,---,0.00,VWS V14.00,2013-05-10 04:59:00,
2013-05-10 01:01:00,62.6,58.0,27.90,WNW,292,0.0,0.0,85,0.00,,---,0.00,VWS V14.00,2013-05-10 05:01:00,
2013-05-10 01:02:00,62.6,58.0,27.90,WNW,292,0.0,0.0,85,0.00,,---,0.00,VWS V14.00,2013-05-10 05:02:00,
2013-05-10 01:03:00,62.6,58.0,27.90,WNW,292,0.0,0.0,85,0.00,,---,0.00,VWS V14.00,2013-05-10 05:03:00,
2013-05-10 01:04:00,62.4,58.2,27.90,WNW,292,0.0,0.0,86,0.00,,---,0.00,VWS V14.00,2013-05-10 05:04:00,
2013-05-10 01:07:00,62.4,58.2,27.90,WNW,292,0.0,0.0,86,0.00,,---,0.00,VWS V14.00,2013-05-10 05:07:00,
2013-05-10 01:08:00,62.4,58.2,27.90,WNW,292,0.0,0.0,86,0.00,,---,0.00,VWS V14.00,2013-05-10 05:08:00,
2013-05-10 01:09:00,62.4,58.2,27.90,WNW,292,0.0,0.0,86,0.00,,---,0.00,VWS V14.00,2013-05-10 05:09:00,
2013-05-10 01:10:00,62.6,58.4,27.90,WNW,292,0.0,0.0,86,0.00,,---,0.00,VWS V14.00,2013-05-10 05:10:00,
2013-05-10 01:12:00,62.6,58.4,27.90,WNW,292,0.0,0.0,86,0.00,,---,0.00,VWS V14.00,2013-05-10 05:12:00,
2013-05-10 01:13:00,62.6,58.4,27.90,WNW,292,0.0,0.0,86,0.00,,---,0.00,VWS V14.00,2013-05-10 05:13:00,
2013-05-10 01:14:00,62.6,58.4,27.90,WNW,292,0.0,0.0,86,0.00,,---,0.00,VWS V14.00,2013-05-10 05:14:00,
2013-05-10 01:15:00,62.6,58.4,27.90,WNW,292,0.0,0.0,86,0.00,,---,0.00,VWS V14.00,2013-05-10 05:15:00,
2013-05-10 01:17:00,62.8,58.5,27.90,WNW,292,0.0,0.0,86,0.00,,---,0.00,VWS V14.00,2013-05-10 05:17:00,
2013-05-10 01:18:00,62.8,58.5,27.90,WNW,292,0.0,0.0,86,0.00,,---,0.00,VWS V14.00,2013-05-10 05:18:00,
2013-05-10 01:19:00,62.8,58.5,27.90,WNW,292,0.0,0.0,86,0.00,,---,0.00,VWS V14.00,2013-05-10 05:19:00,
2013-05-10 01:20:00,62.8,58.5,27.90,WNW,292,0.0,0.0,86,0.00,,---,0.00,VWS V14.00,2013-05-10 05:20:00,
2013-05-10 01:22:00,63.0,58.7,27.90,NW,315,0.0,0.0,86,0.00,,---,0.00,VWS V14.00,2013-05-10 05:22:00,
2013-05-10 01:23:00,63.1,58.9,27.90,East,90,0.0,0.0,86,0.00,,---,0.00,VWS V14.00,2013-05-10 05:23:00,
2013-05-10 01:24:00,63.1,58.9,27.90,NNW,338,0.0,0.0,86,0.00,,---,0.00,VWS V14.00,2013-05-10 05:24:00,
2013-05-10 01:25:00,63.1,59.2,27.90,North,0,1.1,1.1,87,0.00,,---,0.00,VWS V14.00,2013-05-10 05:25:00,
2013-05-10 01:26:00,63.1,59.2,27.90,WNW,292,2.0,2.0,87,0.00,,---,0.00,VWS V14.00,2013-05-10 05:26:00,
2013-05-10 01:27:00,63.1,58.9,27.90,West,270,0.0,1.3,86,0.00,,---,0.00,VWS V14.00,2013-05-10 05:27:00,
2013-05-10 01:28:00,63.0,58.7,27.90,West,270,0.0,0.0,86,0.00,,---,0.00,VWS V14.00,2013-05-10 05:28:00,
2013-05-10 01:29:00,63.0,58.7,27.90,West,270,0.0,0.0,86,0.00,,---,0.00,VWS V14.00,2013-05-10 05:29:00,
2013-05-10 01:30:00,63.0,58.7,27.90,WNW,292,0.0,0.0,86,0.00,,---,0.00,VWS V14.00,2013-05-10 05:30:00,
2013-05-10 01:31:00,63.0,58.7,27.90,WNW,292,0.0,0.0,86,0.00,,---,0.00,VWS V14.00,2013-05-10 05:31:00,
2013-05-10 01:33:00,63.0,58.7,27.90,NNW,338,0.0,0.0,86,0.00,,---,0.00,VWS V14.00,2013-05-10 05:33:00,
2013-05-10 01:34:00,63.1,58.9,27.90,NNW,338,0.0,0.0,86,0.00,,---,0.00,VWS V14.00,2013-05-10 05:34:00,
2013-05-10 01:35:00,63.0,58.7,27.90,NNW,338,0.0,0.0,86,0.00,,---,0.00,VWS V14.00,2013-05-10 05:35:00,
2013-05-10 01:36:00,63.0,58.7,27.90,NNW,338,0.0,0.0,86,0.00,,---,0.00,VWS V14.00,2013-05-10 05:36:00,
2013-05-10 01:38:00,63.1,58.9,27.90,NNW,338,0.0,0.0,86,0.00,,---,0.00,VWS V14.00,2013-05-10 05:38:00,
2013-05-10 01:39:00,63.1,58.9,27.90,NNW,338,0.0,0.0,86,0.00,,---,0.00,VWS V14.00,2013-05-10 05:39:00,
2013-05-10 01:40:00,63.0,58.7,27.90,NNW,338,0.0,0.0,86,0.00,,---,0.00,VWS V14.00,2013-05-10 05:40:00,
2013-05-10 01:42:00,63.0,58.7,27.90,NNW,338,0.0,0.0,86,0.00,,---,0.00,VWS V14.00,2013-05-10 05:42:00,
2013-05-10 01:43:00,63.1,58.9,27.90,NNW,338,0.0,0.0,86,0.00,,---,0.00,VWS V14.00,2013-05-10 05:43:00,
2013-05-10 01:44:00,63.1,58.9,27.90,NNW,338,0.0,0.0,86,0.00,,---,0.00,VWS V14.00,2013-05-10 05:44:00,
2013-05-10 01:45:00,63.1,58.9,27.90,North,0,1.1,1.1,86,0.00,,---,0.00,VWS V14.00,2013-05-10 05:45:00,
2013-05-10 01:47:00,63.1,58.9,27.90,North,0,1.1,1.1,86,0.00,,---,0.00,VWS V14.00,2013-05-10 05:47:00,
2013-05-10 01:48:00,63.1,58.9,27.90,North,0,1.6,2.0,86,0.00,,---,0.00,VWS V14.00,2013-05-10 05:48:00,
2013-05-10 01:49:00,63.1,58.9,27.90,North,0,1.3,2.0,86,0.00,,---,0.00,VWS V14.00,2013-05-10 05:49:00,
2013-05-10 01:50:00,63.3,59.1,27.90,NNW,338,1.6,2.0,86,0.00,,---,0.00,VWS V14.00,2013-05-10 05:50:00,
2013-05-10 01:52:00,63.5,59.2,27.90,North,0,1.1,1.1,86,0.00,,---,0.00,VWS V14.00,2013-05-10 05:52:00,
2013-05-10 01:53:00,63.5,59.2,27.90,NNE,22,0.0,0.0,86,0.00,,---,0.00,VWS V14.00,2013-05-10 05:53:00,
2013-05-10 01:54:00,63.5,59.2,27.90,North,0,0.0,0.0,86,0.00,,---,0.00,VWS V14.00,2013-05-10 05:54:00,
2013-05-10 01:55:00,63.5,59.2,27.90,NNW,338,0.0,1.3,86,0.00,,---,0.00,VWS V14.00,2013-05-10 05:55:00,
2013-05-10 01:57:00,63.5,59.2,27.90,NNW,338,0.0,0.0,86,0.00,,---,0.00,VWS V14.00,2013-05-10 05:57:00,
2013-05-10 01:58:00,63.5,59.2,27.88,NNW,338,0.0,0.0,86,0.00,,---,0.00,VWS V14.00,2013-05-10 05:58:00,
2013-05-10 01:59:00,63.5,59.2,27.88,NNW,338,1.3,1.3,86,0.00,,---,0.00,VWS V14.00,2013-05-10 05:59:00,
2013-05-10 02:00:00,63.5,59.2,27.88,North,0,0.0,0.0,86,0.00,,---,0.00,VWS V14.00,2013-05-10 06:00:00,
2013-05-10 02:02:00,63.5,59.2,27.88,NNW,338,0.0,0.0,86,0.00,,---,0.00,VWS V14.00,2013-05-10 06:02:00,
2013-05-10 02:03:00,63.5,59.2,27.88,NNW,338,0.0,0.0,86,0.00,,---,0.00,VWS V14.00,2013-05-10 06:03:00,
2013-05-10 02:04:00,63.3,59.1,27.88,NNW,338,0.0,0.0,86,0.00,,---,0.00,VWS V14.00,2013-05-10 06:04:00,
2013-05-10 02:06:00,63.3,59.1,27.88,NNW,338,2.0,2.0,86,0.00,,---,0.00,VWS V14.00,2013-05-10 06:06:00,
2013-05-10 02:08:00,63.3,59.1,27.88,North,0,0.0,0.0,86,0.00,,---,0.00,VWS V14.00,2013-05-10 06:08:00,
2013-05-10 02:09:00,63.3,59.1,27.88,North,0,0.0,0.0,86,0.00,,---,0.00,VWS V14.00,2013-05-10 06:09:00,
2013-05-10 02:10:00,63.3,59.1,27.88,North,0,0.0,0.0,86,0.00,,---,0.00,VWS V14.00,2013-05-10 06:10:00,
2013-05-10 02:11:00,63.3,59.1,27.88,North,0,0.0,0.0,86,0.00,,---,0.00,VWS V14.00,2013-05-10 06:11:00,
2013-05-10 02:13:00,63.3,59.1,27.88,North,0,0.0,0.0,86,0.00,,---,0.00,VWS V14.00,2013-05-10 06:13:00,
2013-05-10 02:14:00,63.1,58.6,27.88,NNW,338,0.0,0.0,85,0.00,,---,0.00,VWS V14.00,2013-05-10 06:14:00,
2013-05-10 02:15:00,63.1,58.6,27.88,NNW,338,0.0,0.0,85,0.00,,---,0.00,VWS V14.00,2013-05-10 06:15:00,
2013-05-10 02:16:00,63.0,58.7,27.88,NNW,338,0.0,0.0,86,0.00,,---,0.00,VWS V14.00,2013-05-10 06:16:00,
2013-05-10 02:18:00,63.0,58.7,27.88,NNW,338,0.0,0.0,86,0.00,,---,0.00,VWS V14.00,2013-05-10 06:18:00,
2013-05-10 02:20:00,63.0,58.7,27.88,NNW,338,0.0,0.0,86,0.00,,---,0.00,VWS V14.00,2013-05-10 06:20:00,
2013-05-10 02:22:00,62.8,58.5,27.88,NNW,338,0.0,0.0,86,0.00,,---,0.00,VWS V14.00,2013-05-10 06:22:00,
2013-05-10 02:23:00,62.8,58.5,27.88,NNW,338,0.0,0.0,86,0.00,,---,0.00,VWS V14.00,2013-05-10 06:23:00,
2013-05-10 02:24:00,62.8,58.5,27.88,NNW,338,0.0,0.0,86,0.00,,---,0.00,VWS V14.00,2013-05-10 06:24:00,
2013-05-10 02:25:00,62.6,58.4,27.88,NNW,338,0.0,0.0,86,0.00,,---,0.00,VWS V14.00,2013-05-10 06:25:00,
2013-05-10 02:27:00,62.6,58.4,27.88,NNW,338,0.0,0.0,86,0.00,,---,0.00,VWS V14.00,2013-05-10 06:27:00,
2013-05-10 02:29:00,62.8,58.9,27.88,NNW,338,0.0,0.0,87,0.00,,---,0.00,VWS V14.00,2013-05-10 06:29:00,
2013-05-10 02:30:00,62.8,58.9,27.88,NNW,338,1.1,1.1,87,0.00,,---,0.00,VWS V14.00,2013-05-10 06:30:00,
2013-05-10 02:31:00,62.8,58.9,27.88,NNW,338,1.3,1.3,87,0.00,,---,0.00,VWS V14.00,2013-05-10 06:31:00,
2013-05-10 02:32:00,62.8,58.9,27.88,NNW,338,2.0,2.0,87,0.00,,---,0.00,VWS V14.00,2013-05-10 06:32:00,
2013-05-10 02:34:00,62.6,58.7,27.88,NNW,338,1.1,1.1,87,0.00,,---,0.00,VWS V14.00,2013-05-10 06:34:00,
2013-05-10 02:35:00,62.8,58.9,27.88,NNW,338,2.0,2.0,87,0.00,,---,0.00,VWS V14.00,2013-05-10 06:35:00,
2013-05-10 02:36:00,62.8,58.9,27.88,NNW,338,2.2,2.2,87,0.00,,---,0.00,VWS V14.00,2013-05-10 06:36:00,
2013-05-10 02:37:00,62.8,58.9,27.88,NNW,338,1.3,2.2,87,0.00,,---,0.00,VWS V14.00,2013-05-10 06:37:00,
2013-05-10 02:39:00,62.8,58.9,27.88,NNW,338,0.0,0.0,87,0.00,,---,0.00,VWS V14.00,2013-05-10 06:39:00,
2013-05-10 02:40:00,62.8,58.9,27.88,NNW,338,0.0,0.0,87,0.00,,---,0.00,VWS V14.00,2013-05-10 06:40:00,
2013-05-10 02:41:00,62.8,58.9,27.88,NNW,338,0.0,0.0,87,0.00,,---,0.00,VWS V14.00,2013-05-10 06:41:00,
2013-05-10 02:42:00,62.8,58.9,27.88,NNW,338,0.0,0.0,87,0.00,,---,0.00,VWS V14.00,2013-05-10 06:42:00,
2013-05-10 02:44:00,62.8,58.9,27.88,NW,315,0.0,0.0,87,0.00,,---,0.00,VWS V14.00,2013-05-10 06:44:00,
2013-05-10 02:45:00,62.6,58.7,27.88,NW,315,0.0,0.0,87,0.00,,---,0.00,VWS V14.00,2013-05-10 06:45:00,
2013-05-10 02:46:00,62.6,58.7,27.88,NW,315,0.0,0.0,87,0.00,,---,0.00,VWS V14.00,2013-05-10 06:46:00,
2013-05-10 02:47:00,62.6,58.7,27.88,NNW,338,0.0,0.0,87,0.00,,---,0.00,VWS V14.00,2013-05-10 06:47:00,
2013-05-10 02:49:00,62.6,58.7,27.88,WNW,292,0.0,0.0,87,0.00,,---,0.00,VWS V14.00,2013-05-10 06:49:00,
2013-05-10 02:50:00,62.4,58.5,27.88,WNW,292,0.0,0.0,87,0.00,,---,0.00,VWS V14.00,2013-05-10 06:50:00,
2013-05-10 02:51:00,62.4,58.5,27.88,WNW,292,0.0,0.0,87,0.00,,---,0.00,VWS V14.00,2013-05-10 06:51:00,
2013-05-10 02:52:00,62.4,58.5,27.88,North,0,0.0,0.0,87,0.00,,---,0.00,VWS V14.00,2013-05-10 06:52:00,
2013-05-10 02:54:00,62.2,58.7,27.88,NW,315,0.0,0.0,88,0.00,,---,0.00,VWS V14.00,2013-05-10 06:54:00,
2013-05-10 02:55:00,62.2,58.7,27.88,NW,315,0.0,0.0,88,0.00,,---,0.00,VWS V14.00,2013-05-10 06:55:00,
2013-05-10 02:56:00,62.2,58.7,27.88,NW,315,0.0,0.0,88,0.00,,---,0.00,VWS V14.00,2013-05-10 06:56:00,
2013-05-10 02:57:00,62.1,58.5,27.88,WNW,292,0.0,0.0,88,0.00,,---,0.00,VWS V14.00,2013-05-10 06:57:00,
2013-05-10 02:59:00,62.1,58.5,27.85,NW,315,0.0,0.0,88,0.00,,---,0.00,VWS V14.00,2013-05-10 06:59:00,
2013-05-10 03:01:00,62.1,58.5,27.85,NW,315,0.0,0.0,88,0.00,,---,0.00,VWS V14.00,2013-05-10 07:01:00,
2013-05-10 03:02:00,62.1,58.5,27.85,WNW,292,0.0,0.0,88,0.00,,---,0.00,VWS V14.00,2013-05-10 07:02:00,
2013-05-10 03:04:00,62.1,58.5,27.85,WNW,292,0.0,0.0,88,0.00,,---,0.00,VWS V14.00,2013-05-10 07:04:00,
2013-05-10 03:05:00,62.1,58.5,27.85,WNW,292,0.0,0.0,88,0.00,,---,0.00,VWS V14.00,2013-05-10 07:05:00,
2013-05-10 03:06:00,62.1,58.5,27.85,WNW,292,0.0,0.0,88,0.00,,---,0.00,VWS V14.00,2013-05-10 07:06:00,
2013-05-10 03:07:00,61.9,58.3,27.85,WNW,292,0.0,0.0,88,0.00,,---,0.00,VWS V14.00,2013-05-10 07:07:00,
2013-05-10 03:09:00,61.9,58.3,27.85,West,270,0.0,0.0,88,0.00,,---,0.00,VWS V14.00,2013-05-10 07:09:00,
2013-05-10 03:10:00,61.9,58.3,27.85,West,270,0.0,0.0,88,0.00,,---,0.00,VWS V14.00,2013-05-10 07:10:00,
2013-05-10 03:11:00,62.1,58.8,27.85,WNW,292,0.9,0.9,89,0.00,,---,0.00,VWS V14.00,2013-05-10 07:11:00,
2013-05-10 03:13:00,61.9,58.6,27.85,NE,45,0.9,0.9,89,0.00,,---,0.00,VWS V14.00,2013-05-10 07:13:00,
2013-05-10 03:14:00,61.9,58.6,27.85,SSW,202,0.0,0.9,89,0.00,,---,0.00,VWS V14.00,2013-05-10 07:14:00,
2013-05-10 03:15:00,61.9,58.6,27.85,SSW,202,0.0,0.0,89,0.00,,---,0.00,VWS V14.00,2013-05-10 07:15:00,
2013-05-10 03:16:00,62.1,58.8,27.85,NE,45,0.0,0.0,89,0.00,,---,0.00,VWS V14.00,2013-05-10 07:16:00,
2013-05-10 03:18:00,62.1,58.8,27.85,WSW,248,0.0,0.0,89,0.00,,---,0.00,VWS V14.00,2013-05-10 07:18:00,
2013-05-10 03:19:00,62.1,58.8,27.85,WNW,292,0.0,0.0,89,0.00,,---,0.00,VWS V14.00,2013-05-10 07:19:00,
2013-05-10 03:20:00,62.1,58.8,27.85,North,0,0.0,0.0,89,0.00,,---,0.00,VWS V14.00,2013-05-10 07:20:00,
2013-05-10 03:21:00,62.1,58.8,27.85,NW,315,0.0,0.0,89,0.00,,---,0.00,VWS V14.00,2013-05-10 07:21:00,
2013-05-10 03:23:00,62.2,59.0,27.85,NNW,338,0.0,0.0,89,0.00,,---,0.00,VWS V14.00,2013-05-10 07:23:00,
2013-05-10 03:24:00,62.1,58.8,27.85,West,270,0.0,0.0,89,0.00,,---,0.00,VWS V14.00,2013-05-10 07:24:00,
2013-05-10 03:25:00,62.1,58.8,27.85,West,270,0.0,0.0,89,0.00,,---,0.00,VWS V14.00,2013-05-10 07:25:00,
2013-05-10 03:26:00,62.1,58.8,27.85,West,270,0.0,0.0,89,0.00,,---,0.00,VWS V14.00,2013-05-10 07:26:00,
2013-05-10 03:28:00,62.1,58.8,27.85,South,180,2.9,2.9,89,0.00,,---,0.00,VWS V14.00,2013-05-10 07:28:00,
2013-05-10 03:29:00,62.1,58.8,27.85,WNW,292,0.0,0.0,89,0.00,,---,0.00,VWS V14.00,2013-05-10 07:29:00,
2013-05-10 03:30:00,62.1,58.8,27.85,WNW,292,0.0,0.0,89,0.00,,---,0.00,VWS V14.00,2013-05-10 07:30:00,
2013-05-10 03:31:00,62.1,58.8,27.85,North,0,1.1,1.1,89,0.00,,---,0.00,VWS V14.00,2013-05-10 07:31:00,
2013-05-10 03:34:00,62.1,59.1,27.85,NE,45,0.0,0.0,90,0.00,,---,0.00,VWS V14.00,2013-05-10 07:34:00,
2013-05-10 03:35:00,62.1,59.1,27.85,West,270,0.0,0.0,90,0.00,,---,0.00,VWS V14.00,2013-05-10 07:35:00,
2013-05-10 03:36:00,62.2,59.3,27.85,NE,45,0.0,0.0,90,0.00,,---,0.00,VWS V14.00,2013-05-10 07:36:00,
2013-05-10 03:39:00,62.2,59.3,27.85,NNW,338,0.0,0.0,90,0.00,,---,0.00,VWS V14.00,2013-05-10 07:39:00,
2013-05-10 03:40:00,62.2,59.3,27.85,NNW,338,0.0,0.0,90,0.00,,---,0.00,VWS V14.00,2013-05-10 07:40:00,
2013-05-10 03:42:00,62.2,59.3,27.85,NNW,338,0.0,0.0,90,0.00,,---,0.00,VWS V14.00,2013-05-10 07:42:00,
2013-05-10 03:45:00,62.2,59.3,27.85,NNW,338,0.0,0.0,90,0.00,,---,0.00,VWS V14.00,2013-05-10 07:45:00,
2013-05-10 03:47:00,62.2,59.3,27.85,NNW,338,0.0,0.0,90,0.00,,---,0.00,VWS V14.00,2013-05-10 07:47:00,
2013-05-10 03:50:00,62.1,59.1,27.85,NW,315,0.0,0.0,90,0.00,,---,0.00,VWS V14.00,2013-05-10 07:50:00,
2013-05-10 03:51:00,62.1,59.1,27.85,NW,315,0.0,0.0,90,0.00,,---,0.00,VWS V14.00,2013-05-10 07:51:00,
2013-05-10 03:52:00,62.1,59.1,27.85,WNW,292,0.0,0.0,90,0.00,,---,0.00,VWS V14.00,2013-05-10 07:52:00,
2013-05-10 03:55:00,61.9,58.9,27.85,WNW,292,0.0,0.0,90,0.00,,---,0.00,VWS V14.00,2013-05-10 07:55:00,
2013-05-10 03:56:00,61.9,58.9,27.85,WNW,292,0.0,0.0,90,0.00,,---,0.00,VWS V14.00,2013-05-10 07:56:00,
2013-05-10 03:57:00,61.9,58.9,27.85,West,270,0.0,0.0,90,0.00,,---,0.00,VWS V14.00,2013-05-10 07:57:00,
2013-05-10 04:00:00,61.9,58.9,27.85,NW,315,0.0,0.0,90,0.00,,---,0.00,VWS V14.00,2013-05-10 08:00:00,
2013-05-10 04:01:00,61.9,58.9,27.85,NW,315,0.0,0.0,90,0.00,,---,0.00,VWS V14.00,2013-05-10 08:01:00,
2013-05-10 04:03:00,61.9,58.9,27.85,West,270,0.0,0.0,90,0.00,,---,0.00,VWS V14.00,2013-05-10 08:03:00,
2013-05-10 04:05:00,61.9,58.9,27.85,WNW,292,0.0,0.0,90,0.00,,---,0.00,VWS V14.00,2013-05-10 08:05:00,
2013-05-10 04:06:00,61.9,58.9,27.85,WNW,292,0.0,0.0,90,0.00,,---,0.00,VWS V14.00,2013-05-10 08:06:00,
2013-05-10 04:08:00,61.9,58.9,27.85,NW,315,0.0,1.3,90,0.00,,---,0.00,VWS V14.00,2013-05-10 08:08:00,
2013-05-10 04:10:00,61.9,59.2,27.85,WNW,292,1.6,1.6,91,0.00,,---,0.00,VWS V14.00,2013-05-10 08:10:00,
2013-05-10 04:11:00,61.9,59.2,27.85,WNW,292,0.0,0.0,91,0.00,,---,0.00,VWS V14.00,2013-05-10 08:11:00,
2013-05-10 04:13:00,61.9,59.2,27.85,WNW,292,0.0,0.0,91,0.00,,---,0.00,VWS V14.00,2013-05-10 08:13:00,
2013-05-10 04:15:00,61.9,59.2,27.85,WSW,248,0.0,0.0,91,0.00,,---,0.00,VWS V14.00,2013-05-10 08:15:00,
2013-05-10 04:16:00,61.9,59.2,27.85,WSW,248,0.0,0.0,91,0.00,,---,0.00,VWS V14.00,2013-05-10 08:16:00,
2013-05-10 04:17:00,61.9,59.2,27.85,West,270,0.0,0.0,91,0.00,,---,0.00,VWS V14.00,2013-05-10 08:17:00,
2013-05-10 04:18:00,61.7,59.0,27.85,SW,225,1.1,1.1,91,0.00,,---,0.00,VWS V14.00,2013-05-10 08:18:00,
2013-05-10 04:20:00,61.7,59.0,27.85,WNW,292,0.0,0.0,91,0.00,,---,0.00,VWS V14.00,2013-05-10 08:20:00,
2013-05-10 04:21:00,61.9,59.2,27.85,West,270,0.0,0.0,91,0.00,,---,0.00,VWS V14.00,2013-05-10 08:21:00,
2013-05-10 04:22:00,61.9,59.2,27.85,WNW,292,0.0,0.0,91,0.00,,---,0.00,VWS V14.00,2013-05-10 08:22:00,
2013-05-10 04:23:00,61.7,59.0,27.85,West,270,0.0,0.0,91,0.00,,---,0.00,VWS V14.00,2013-05-10 08:23:00,
2013-05-10 04:26:00,61.7,59.0,27.85,WNW,292,0.0,0.0,91,0.00,,---,0.00,VWS V14.00,2013-05-10 08:26:00,
2013-05-10 04:27:00,61.7,59.0,27.85,WNW,292,0.0,0.0,91,0.00,,---,0.00,VWS V14.00,2013-05-10 08:27:00,
2013-05-10 04:28:00,61.9,59.2,27.85,WNW,292,0.0,0.0,91,0.00,,---,0.00,VWS V14.00,2013-05-10 08:28:00,
2013-05-10 04:31:00,61.7,59.0,27.85,WNW,292,0.0,0.0,91,0.00,,---,0.00,VWS V14.00,2013-05-10 08:31:00,
2013-05-10 04:32:00,61.7,59.0,27.85,West,270,0.0,0.0,91,0.00,,---,0.00,VWS V14.00,2013-05-10 08:32:00,
2013-05-10 04:33:00,61.7,59.0,27.85,West,270,0.0,0.0,91,0.00,,---,0.00,VWS V14.00,2013-05-10 08:33:00,
2013-05-10 04:36:00,61.7,59.0,27.85,WNW,292,0.0,0.0,91,0.00,,---,0.00,VWS V14.00,2013-05-10 08:36:00,
2013-05-10 04:37:00,61.7,59.0,27.85,West,270,0.0,0.0,91,0.00,,---,0.00,VWS V14.00,2013-05-10 08:37:00,
2013-05-10 04:38:00,61.7,59.0,27.85,West,270,0.0,0.0,91,0.00,,---,0.00,VWS V14.00,2013-05-10 08:38:00,
2013-05-10 04:41:00,61.7,59.0,27.85,West,270,1.6,1.6,91,0.00,,---,0.00,VWS V14.00,2013-05-10 08:41:00,
2013-05-10 04:42:00,61.7,59.0,27.85,West,270,1.6,1.6,91,0.00,,---,0.00,VWS V14.00,2013-05-10 08:42:00,
2013-05-10 04:43:00,61.7,59.0,27.85,West,270,0.0,0.0,91,0.00,,---,0.00,VWS V14.00,2013-05-10 08:43:00,
2013-05-10 04:45:00,61.7,59.0,27.85,West,270,0.0,0.0,91,0.00,,---,0.00,VWS V14.00,2013-05-10 08:45:00,
2013-05-10 04:46:00,61.7,59.4,27.85,WNW,292,0.0,0.0,92,0.00,,---,0.00,VWS V14.00,2013-05-10 08:46:00,
2013-05-10 04:47:00,61.7,59.4,27.85,WNW,292,0.0,0.0,92,0.00,,---,0.00,VWS V14.00,2013-05-10 08:47:00,
2013-05-10 04:48:00,61.5,59.2,27.85,WNW,292,0.0,0.0,92,0.00,,---,0.00,VWS V14.00,2013-05-10 08:48:00,
2013-05-10 04:50:00,61.5,59.2,27.85,WNW,292,0.0,0.0,92,0.00,,---,0.00,VWS V14.00,2013-05-10 08:50:00,
2013-05-10 04:51:00,61.5,59.2,27.85,WNW,292,0.0,0.0,92,0.00,,---,0.00,VWS V14.00,2013-05-10 08:51:00,
2013-05-10 04:52:00,61.5,59.2,27.85,WNW,292,0.0,0.0,92,0.00,,---,0.00,VWS V14.00,2013-05-10 08:52:00,
2013-05-10 04:53:00,61.3,59.0,27.85,WNW,292,0.0,0.0,92,0.00,,---,0.00,VWS V14.00,2013-05-10 08:53:00,
2013-05-10 04:55:00,61.3,59.0,27.85,WNW,292,0.0,0.0,92,0.00,,---,0.00,VWS V14.00,2013-05-10 08:55:00,
2013-05-10 04:57:00,61.3,59.0,27.85,WNW,292,0.0,0.0,92,0.00,,---,0.00,VWS V14.00,2013-05-10 08:57:00,
2013-05-10 04:58:00,61.3,59.0,27.85,WNW,292,0.0,0.0,92,0.00,,---,0.00,VWS V14.00,2013-05-10 08:58:00,
2013-05-10 05:00:00,61.3,59.0,27.85,WNW,292,0.0,0.0,92,0.00,,---,0.00,VWS V14.00,2013-05-10 09:00:00,
2013-05-10 05:02:00,61.2,58.8,27.85,WNW,292,0.0,0.0,92,0.00,,---,0.00,VWS V14.00,2013-05-10 09:02:00,
2013-05-10 05:03:00,61.2,58.8,27.85,WNW,292,0.0,0.0,92,0.00,,---,0.00,VWS V14.00,2013-05-10 09:03:00,
2013-05-10 05:04:00,61.2,58.8,27.85,WNW,292,0.0,0.0,92,0.00,,---,0.00,VWS V14.00,2013-05-10 09:04:00,
2013-05-10 05:06:00,61.2,58.8,27.85,WNW,292,0.0,0.0,92,0.00,,---,0.00,VWS V14.00,2013-05-10 09:06:00,
2013-05-10 05:07:00,61.2,58.8,27.85,WNW,292,0.0,0.0,92,0.00,,---,0.00,VWS V14.00,2013-05-10 09:07:00,
2013-05-10 05:08:00,61.2,58.8,27.85,WNW,292,0.0,0.0,92,0.00,,---,0.00,VWS V14.00,2013-05-10 09:08:00,
2013-05-10 05:09:00,61.0,58.6,27.85,WNW,292,0.0,0.0,92,0.00,,---,0.00,VWS V14.00,2013-05-10 09:09:00,
2013-05-10 05:11:00,61.0,58.6,27.85,WNW,292,0.0,0.0,92,0.00,,---,0.00,VWS V14.00,2013-05-10 09:11:00,
2013-05-10 05:12:00,61.0,58.6,27.85,WNW,292,0.0,0.0,92,0.00,,---,0.00,VWS V14.00,2013-05-10 09:12:00,
2013-05-10 05:13:00,61.0,58.6,27.85,WNW,292,0.0,0.0,92,0.00,,---,0.00,VWS V14.00,2013-05-10 09:13:00,
2013-05-10 05:14:00,60.8,58.5,27.85,WNW,292,0.0,0.0,92,0.00,,---,0.00,VWS V14.00,2013-05-10 09:14:00,
2013-05-10 05:16:00,60.6,58.6,27.85,WNW,292,0.0,0.0,93,0.00,,---,0.00,VWS V14.00,2013-05-10 09:16:00,
2013-05-10 05:18:00,60.6,58.6,27.85,WNW,292,0.0,0.0,93,0.00,,---,0.00,VWS V14.00,2013-05-10 09:18:00,
2013-05-10 05:19:00,60.6,58.6,27.85,WNW,292,0.0,0.0,93,0.00,,---,0.00,VWS V14.00,2013-05-10 09:19:00,
2013-05-10 05:20:00,60.6,58.6,27.85,WNW,292,0.0,0.0,93,0.00,,---,0.00,VWS V14.00,2013-05-10 09:20:00,
2013-05-10 05:22:00,60.6,58.6,27.85,WNW,292,0.0,0.0,93,0.00,,---,0.00,VWS V14.00,2013-05-10 09:22:00,
2013-05-10 05:23:00,60.6,58.6,27.85,WNW,292,0.0,0.0,93,0.00,,---,0.00,VWS V14.00,2013-05-10 09:23:00,
2013-05-10 05:24:00,60.6,58.6,27.85,WNW,292,0.0,0.0,93,0.00,,---,0.00,VWS V14.00,2013-05-10 09:24:00,
2013-05-10 05:25:00,60.6,58.6,27.85,WNW,292,0.0,0.0,93,0.00,,---,0.00,VWS V14.00,2013-05-10 09:25:00,
2013-05-10 05:27:00,60.6,58.6,27.85,WNW,292,0.0,0.0,93,0.00,,---,0.00,VWS V14.00,2013-05-10 09:27:00,
2013-05-10 05:29:00,60.4,58.4,27.82,WNW,292,0.0,0.0,93,0.00,,---,0.00,VWS V14.00,2013-05-10 09:29:00,
2013-05-10 05:30:00,60.6,58.6,27.82,WNW,292,0.0,0.0,93,0.00,,---,0.00,VWS V14.00,2013-05-10 09:30:00,
2013-05-10 05:32:00,60.4,58.4,27.82,WNW,292,0.0,0.0,93,0.00,,---,0.00,VWS V14.00,2013-05-10 09:32:00,
2013-05-10 05:34:00,60.4,58.4,27.82,WNW,292,0.0,0.0,93,0.00,,---,0.00,VWS V14.00,2013-05-10 09:34:00,
2013-05-10 05:35:00,60.6,58.6,27.82,WNW,292,0.0,0.0,93,0.00,,---,0.00,VWS V14.00,2013-05-10 09:35:00,
2013-05-10 05:37:00,60.4,58.4,27.82,WNW,292,0.0,0.0,93,0.00,,---,0.00,VWS V14.00,2013-05-10 09:37:00,
2013-05-10 05:39:00,60.6,58.6,27.82,WNW,292,0.0,0.0,93,0.00,,---,0.00,VWS V14.00,2013-05-10 09:39:00,
2013-05-10 05:40:00,60.6,58.6,27.82,WNW,292,0.0,0.0,93,0.00,,---,0.00,VWS V14.00,2013-05-10 09:40:00,
2013-05-10 05:42:00,60.6,58.6,27.82,WNW,292,0.0,0.0,93,0.00,,---,0.00,VWS V14.00,2013-05-10 09:42:00,
2013-05-10 05:44:00,60.6,58.9,27.82,WNW,292,0.0,0.0,94,0.00,,---,0.00,VWS V14.00,2013-05-10 09:44:00,
2013-05-10 05:45:00,60.6,58.9,27.82,WNW,292,0.0,0.0,94,0.00,,---,0.00,VWS V14.00,2013-05-10 09:45:00,
2013-05-10 05:47:00,60.6,58.9,27.82,WNW,292,0.0,0.0,94,0.00,,---,0.00,VWS V14.00,2013-05-10 09:47:00,
2013-05-10 05:49:00,60.6,58.9,27.82,WNW,292,0.0,0.0,94,0.00,,---,0.00,VWS V14.00,2013-05-10 09:49:00,
2013-05-10 05:50:00,60.6,58.9,27.82,WNW,292,0.0,0.0,94,0.00,,---,0.00,VWS V14.00,2013-05-10 09:50:00,
2013-05-10 05:51:00,60.6,58.9,27.82,WNW,292,0.0,0.0,94,0.00,,---,0.00,VWS V14.00,2013-05-10 09:51:00,
2013-05-10 05:53:00,60.6,58.9,27.82,WNW,292,0.0,0.0,94,0.00,,---,0.00,VWS V14.00,2013-05-10 09:53:00,
2013-05-10 05:54:00,60.6,58.9,27.82,WNW,292,0.0,0.0,94,0.00,,---,0.00,VWS V14.00,2013-05-10 09:54:00,
2013-05-10 05:56:00,60.6,58.9,27.82,WNW,292,0.0,0.0,94,0.00,,---,0.00,VWS V14.00,2013-05-10 09:56:00,
2013-05-10 05:58:00,60.6,58.9,27.85,WNW,292,0.0,0.0,94,0.00,,---,0.00,VWS V14.00,2013-05-10 09:58:00,
2013-05-10 05:59:00,60.6,58.9,27.85,WNW,292,0.0,0.0,94,0.00,,---,0.00,VWS V14.00,2013-05-10 09:59:00,
2013-05-10 06:01:00,60.6,58.9,27.85,WNW,292,1.1,1.1,94,0.00,,---,0.00,VWS V14.00,2013-05-10 10:01:00,
2013-05-10 06:03:00,60.6,58.9,27.85,West,270,0.0,0.0,94,0.00,,---,0.00,VWS V14.00,2013-05-10 10:03:00,
2013-05-10 06:05:00,60.6,58.9,27.85,West,270,0.0,0.0,94,0.00,,---,0.00,VWS V14.00,2013-05-10 10:05:00,
2013-05-10 06:06:00,60.6,58.9,27.85,West,270,0.0,0.0,94,0.00,,---,0.00,VWS V14.00,2013-05-10 10:06:00,
2013-05-10 06:08:00,60.6,58.9,27.85,West,270,0.0,0.0,94,0.00,,---,0.00,VWS V14.00,2013-05-10 10:08:00,
2013-05-10 06:10:00,60.8,58.8,27.85,West,270,0.0,0.0,93,0.00,,---,0.00,VWS V14.00,2013-05-10 10:10:00,
2013-05-10 06:11:00,61.0,59.0,27.85,West,270,0.0,0.0,93,0.00,,---,0.00,VWS V14.00,2013-05-10 10:11:00,
2013-05-10 06:12:00,61.0,59.0,27.85,West,270,0.0,0.0,93,0.00,,---,0.00,VWS V14.00,2013-05-10 10:12:00,
2013-05-10 06:13:00,61.0,59.0,27.85,West,270,0.0,0.0,93,0.00,,---,0.00,VWS V14.00,2013-05-10 10:13:00,
2013-05-10 06:15:00,61.0,59.0,27.85,West,270,0.0,0.0,93,0.00,,---,0.00,VWS V14.00,2013-05-10 10:15:00,
2013-05-10 06:16:00,61.0,59.0,27.85,West,270,0.0,0.0,93,0.00,,---,0.00,VWS V14.00,2013-05-10 10:16:00,
2013-05-10 06:17:00,61.0,59.0,27.85,West,270,0.0,0.0,93,0.00,,---,0.00,VWS V14.00,2013-05-10 10:17:00,
2013-05-10 06:19:00,61.0,59.0,27.85,West,270,0.0,0.0,93,0.00,,---,0.00,VWS V14.00,2013-05-10 10:19:00,
2013-05-10 06:20:00,61.0,59.0,27.85,West,270,0.0,0.0,93,0.00,,---,0.00,VWS V14.00,2013-05-10 10:20:00,
2013-05-10 06:21:00,61.0,59.0,27.85,West,270,0.0,0.0,93,0.00,,---,0.00,VWS V14.00,2013-05-10 10:21:00,
2013-05-10 06:22:00,61.0,59.0,27.85,West,270,0.0,0.0,93,0.00,,---,0.00,VWS V14.00,2013-05-10 10:22:00,
2013-05-10 06:24:00,61.0,59.0,27.85,NW,315,0.0,0.0,93,0.00,,---,0.00,VWS V14.00,2013-05-10 10:24:00,
2013-05-10 06:25:00,61.0,59.0,27.85,NNE,22,0.0,0.0,93,0.00,,---,0.00,VWS V14.00,2013-05-10 10:25:00,
2013-05-10 06:26:00,61.2,59.1,27.85,North,0,0.0,0.0,93,0.00,,---,0.00,VWS V14.00,2013-05-10 10:26:00,
2013-05-10 06:27:00,61.2,59.1,27.85,North,0,0.0,0.0,93,0.00,,---,0.00,VWS V14.00,2013-05-10 10:27:00,
2013-05-10 06:29:00,61.0,59.0,27.85,North,0,0.0,0.0,93,0.00,,---,0.00,VWS V14.00,2013-05-10 10:29:00,
2013-05-10 06:31:00,61.2,59.1,27.85,West,270,0.9,0.9,93,0.00,,---,0.00,VWS V14.00,2013-05-10 10:31:00,
2013-05-10 06:32:00,61.2,59.1,27.85,WNW,292,0.0,0.0,93,0.00,,---,0.00,VWS V14.00,2013-05-10 10:32:00,
2013-05-10 06:34:00,61.2,59.1,27.85,ESE,112,0.0,0.0,93,0.00,,---,0.00,VWS V14.00,2013-05-10 10:34:00,
2013-05-10 06:36:00,61.2,59.1,27.85,East,90,0.0,0.0,93,0.00,,---,0.00,VWS V14.00,2013-05-10 10:36:00,
2013-05-10 06:37:00,61.2,59.1,27.85,East,90,0.0,0.0,93,0.00,,---,0.00,VWS V14.00,2013-05-10 10:37:00,
2013-05-10 06:40:00,61.2,59.1,27.85,West,270,0.0,0.0,93,0.00,,---,0.00,VWS V14.00,2013-05-10 10:40:00,
2013-05-10 06:42:00,61.2,59.1,27.85,West,270,0.0,0.0,93,0.00,,---,0.00,VWS V14.00,2013-05-10 10:42:00,
2013-05-10 06:43:00,61.2,59.1,27.85,NE,45,0.0,0.0,93,0.00,,---,0.00,VWS V14.00,2013-05-10 10:43:00,
2013-05-10 06:45:00,61.2,59.1,27.85,North,0,0.0,0.0,93,0.00,,---,0.00,VWS V14.00,2013-05-10 10:45:00,
2013-05-10 06:47:00,61.3,59.3,27.85,NE,45,2.0,2.0,93,0.00,,---,0.00,VWS V14.00,2013-05-10 10:47:00,
2013-05-10 06:48:00,61.7,60.0,27.85,NE,45,2.0,2.0,94,0.00,,---,0.00,VWS V14.00,2013-05-10 10:48:00,
2013-05-10 06:50:00,62.1,60.3,27.85,NNE,22,0.0,0.0,94,0.00,,---,0.00,VWS V14.00,2013-05-10 10:50:00,
2013-05-10 06:52:00,62.2,60.5,27.85,NNW,338,0.0,0.0,94,0.00,,---,0.00,VWS V14.00,2013-05-10 10:52:00,
2013-05-10 06:53:00,62.2,60.5,27.85,NNW,338,1.3,1.3,94,0.00,,---,0.00,VWS V14.00,2013-05-10 10:53:00,
2013-05-10 06:55:00,62.2,60.2,27.85,North,0,1.3,2.2,93,0.00,,---,0.00,VWS V14.00,2013-05-10 10:55:00,
2013-05-10 06:57:00,62.2,60.2,27.85,NNE,22,1.6,1.6,93,0.00,,---,0.00,VWS V14.00,2013-05-10 10:57:00,
2013-05-10 06:58:00,62.2,60.2,27.85,NE,45,1.3,1.3,93,0.00,,---,0.00,VWS V14.00,2013-05-10 10:58:00,
2013-05-10 07:00:00,62.6,60.5,27.85,North,0,2.0,2.0,93,0.00,,---,0.00,VWS V14.00,2013-05-10 11:00:00,
2013-05-10 07:02:00,62.6,60.5,27.85,NNE,22,2.0,2.0,93,0.00,,---,0.00,VWS V14.00,2013-05-10 11:02:00,
2013-05-10 07:03:00,62.8,60.7,27.85,NNW,338,2.5,2.5,93,0.00,,---,0.00,VWS V14.00,2013-05-10 11:03:00,
2013-05-10 07:04:00,62.8,60.7,27.85,North,0,2.7,2.7,93,0.00,,---,0.00,VWS V14.00,2013-05-10 11:04:00,
2013-05-10 07:05:00,62.8,60.7,27.85,North,0,1.6,1.6,93,0.00,,---,0.00,VWS V14.00,2013-05-10 11:05:00,
2013-05-10 07:07:00,63.0,60.9,27.85,North,0,2.5,2.5,93,0.00,,---,0.00,VWS V14.00,2013-05-10 11:07:00,
2013-05-10 07:08:00,63.0,60.9,27.85,NNW,338,2.7,2.7,93,0.00,,---,0.00,VWS V14.00,2013-05-10 11:08:00,
2013-05-10 07:09:00,63.0,60.9,27.85,NE,45,2.5,2.7,93,0.00,,---,0.00,VWS V14.00,2013-05-10 11:09:00,
2013-05-10 07:10:00,63.0,60.9,27.85,NNW,338,2.5,2.5,93,0.00,,---,0.00,VWS V14.00,2013-05-10 11:10:00,
2013-05-10 07:12:00,63.0,60.6,27.85,NNE,22,1.6,2.7,92,0.00,,---,0.00,VWS V14.00,2013-05-10 11:12:00,
2013-05-10 07:13:00,63.0,60.6,27.88,NNW,338,2.9,2.9,92,0.00,,---,0.00,VWS V14.00,2013-05-10 11:13:00,
2013-05-10 07:14:00,63.0,60.6,27.88,NNW,338,2.9,2.9,92,0.00,,---,0.00,VWS V14.00,2013-05-10 11:14:00,
2013-05-10 07:16:00,63.1,60.8,27.88,WNW,292,2.2,2.2,92,0.00,,---,0.00,VWS V14.00,2013-05-10 11:16:00,
2013-05-10 07:17:00,63.1,60.8,27.88,NNW,338,2.5,2.5,92,0.00,,---,0.00,VWS V14.00,2013-05-10 11:17:00,
2013-05-10 07:19:00,63.1,60.8,27.88,NNW,338,2.0,2.0,92,0.00,,---,0.00,VWS V14.00,2013-05-10 11:19:00,
2013-05-10 07:20:00,63.1,60.8,27.88,NNW,338,2.0,2.0,92,0.00,,---,0.00,VWS V14.00,2013-05-10 11:20:00,
2013-05-10 07:21:00,63.1,60.8,27.88,North,0,2.0,2.0,92,0.00,,---,0.00,VWS V14.00,2013-05-10 11:21:00,
2013-05-10 07:23:00,63.3,61.0,27.88,NW,315,2.2,2.2,92,0.00,,---,0.00,VWS V14.00,2013-05-10 11:23:00,
2013-05-10 07:24:00,63.3,61.0,27.88,North,0,2.2,2.2,92,0.00,,---,0.00,VWS V14.00,2013-05-10 11:24:00,
2013-05-10 07:25:00,63.3,61.0,27.88,NNW,338,2.7,2.7,92,0.00,,---,0.00,VWS V14.00,2013-05-10 11:25:00,
2013-05-10 07:26:00,63.3,61.0,27.88,NNW,338,2.0,2.0,92,0.00,,---,0.00,VWS V14.00,2013-05-10 11:26:00,
2013-05-10 07:28:00,63.3,61.0,27.88,North,0,2.0,2.0,92,0.00,,---,0.00,VWS V14.00,2013-05-10 11:28:00,
2013-05-10 07:29:00,63.3,61.0,27.88,NNW,338,2.0,2.0,92,0.00,,---,0.00,VWS V14.00,2013-05-10 11:29:00,
2013-05-10 07:30:00,63.3,61.0,27.88,NNW,338,2.0,2.0,92,0.00,,---,0.00,VWS V14.00,2013-05-10 11:30:00,
2013-05-10 07:31:00,63.3,61.0,27.88,North,0,1.6,1.6,92,0.00,,---,0.00,VWS V14.00,2013-05-10 11:31:00,
2013-05-10 07:33:00,63.1,60.8,27.88,North,0,2.0,2.0,92,0.00,,---,0.00,VWS V14.00,2013-05-10 11:33:00,
2013-05-10 07:35:00,63.3,61.0,27.88,NNW,338,2.0,2.0,92,0.00,,---,0.00,VWS V14.00,2013-05-10 11:35:00,
2013-05-10 07:36:00,63.3,61.0,27.88,North,0,2.5,2.5,92,0.00,,---,0.00,VWS V14.00,2013-05-10 11:36:00,
2013-05-10 07:38:00,63.3,61.0,27.88,North,0,1.3,2.5,92,0.00,,---,0.00,VWS V14.00,2013-05-10 11:38:00,
2013-05-10 07:40:00,63.3,61.0,27.88,NNW,338,2.2,2.5,92,0.00,,---,0.00,VWS V14.00,2013-05-10 11:40:00,
2013-05-10 07:41:00,63.3,61.0,27.88,NNW,338,2.2,2.5,92,0.00,,---,0.00,VWS V14.00,2013-05-10 11:41:00,
2013-05-10 07:43:00,63.3,61.0,27.88,NNW,338,2.0,2.0,92,0.00,,---,0.00,VWS V14.00,2013-05-10 11:43:00,
2013-05-10 07:45:00,63.3,61.0,27.88,NNW,338,2.2,2.2,92,0.00,,---,0.00,VWS V14.00,2013-05-10 11:45:00,
2013-05-10 07:46:00,63.3,61.0,27.88,North,0,1.1,2.2,92,0.00,,---,0.00,VWS V14.00,2013-05-10 11:46:00,
2013-05-10 07:47:00,63.5,61.1,27.88,North,0,2.5,2.5,92,0.00,,---,0.00,VWS V14.00,2013-05-10 11:47:00,
2013-05-10 07:49:00,63.5,61.1,27.88,NNW,338,1.3,1.6,92,0.00,,---,0.00,VWS V14.00,2013-05-10 11:49:00,
2013-05-10 07:50:00,63.5,61.1,27.88,NNE,22,2.5,2.5,92,0.00,,---,0.00,VWS V14.00,2013-05-10 11:50:00,
2013-05-10 07:51:00,63.7,61.3,27.88,NNE,22,1.6,1.6,92,0.00,,---,0.00,VWS V14.00,2013-05-10 11:51:00,
2013-05-10 07:52:00,63.7,61.3,27.88,NNW,338,1.3,2.0,92,0.00,,---,0.00,VWS V14.00,2013-05-10 11:52:00,
2013-05-10 07:54:00,63.7,61.3,27.88,North,0,2.2,2.2,92,0.00,,---,0.00,VWS V14.00,2013-05-10 11:54:00,
2013-05-10 07:55:00,63.7,61.3,27.88,NNW,338,2.0,2.0,92,0.00,,---,0.00,VWS V14.00,2013-05-10 11:55:00,
2013-05-10 07:56:00,63.7,61.3,27.88,NNW,338,2.9,2.9,92,0.00,,---,0.00,VWS V14.00,2013-05-10 11:56:00,
2013-05-10 07:57:00,63.7,61.3,27.88,NNW,338,2.2,2.9,92,0.00,,---,0.00,VWS V14.00,2013-05-10 11:57:00,
2013-05-10 07:59:00,63.9,61.5,27.88,North,0,2.7,2.7,92,0.00,,---,0.00,VWS V14.00,2013-05-10 11:59:00,
2013-05-10 08:01:00,63.9,61.5,27.88,North,0,3.1,3.1,92,0.00,,---,0.00,VWS V14.00,2013-05-10 12:01:00,
2013-05-10 08:02:00,63.9,61.5,27.88,NNW,338,0.0,3.1,92,0.00,,---,0.00,VWS V14.00,2013-05-10 12:02:00,
2013-05-10 08:04:00,63.9,61.5,27.88,NNE,22,2.7,2.7,92,0.00,,---,0.00,VWS V14.00,2013-05-10 12:04:00,
2013-05-10 08:06:00,64.0,61.4,27.88,NNW,338,2.9,2.9,91,0.00,,---,0.00,VWS V14.00,2013-05-10 12:06:00,
2013-05-10 08:07:00,64.0,61.4,27.88,NW,315,3.4,3.4,91,0.00,,---,0.00,VWS V14.00,2013-05-10 12:07:00,
2013-05-10 08:09:00,64.2,61.5,27.88,NNW,338,3.1,3.1,91,0.00,,---,0.00,VWS V14.00,2013-05-10 12:09:00,
2013-05-10 08:11:00,64.2,61.5,27.88,NNW,338,2.5,2.5,91,0.00,,---,0.00,VWS V14.00,2013-05-10 12:11:00,
2013-05-10 08:13:00,64.2,61.5,27.88,NNW,338,2.9,2.9,91,0.00,,---,0.00,VWS V14.00,2013-05-10 12:13:00,
2013-05-10 08:14:00,64.2,61.5,27.88,NNW,338,2.7,3.8,91,0.00,,---,0.00,VWS V14.00,2013-05-10 12:14:00,
2013-05-10 08:16:00,64.2,61.5,27.88,WNW,292,5.4,5.4,91,0.00,,---,0.00,VWS V14.00,2013-05-10 12:16:00,
2013-05-10 08:17:00,64.4,61.7,27.88,North,0,2.9,5.4,91,0.00,,---,0.00,VWS V14.00,2013-05-10 12:17:00,
2013-05-10 08:18:00,64.4,61.7,27.88,NNE,22,3.1,3.1,91,0.00,,---,0.00,VWS V14.00,2013-05-10 12:18:00,
2013-05-10 08:20:00,64.4,61.4,27.88,NW,315,4.0,4.0,90,0.00,,---,0.00,VWS V14.00,2013-05-10 12:20:00,
2013-05-10 08:21:00,64.6,61.6,27.88,North,0,5.4,5.4,90,0.00,,---,0.00,VWS V14.00,2013-05-10 12:21:00,
2013-05-10 08:22:00,64.6,61.6,27.88,North,0,3.4,3.4,90,0.00,,---,0.00,VWS V14.00,2013-05-10 12:22:00,
2013-05-10 08:23:00,64.4,61.4,27.88,NNW,338,3.1,3.4,90,0.00,,---,0.00,VWS V14.00,2013-05-10 12:23:00,
2013-05-10 08:25:00,64.4,61.4,27.88,North,0,2.9,2.9,90,0.00,,---,0.00,VWS V14.00,2013-05-10 12:25:00,
2013-05-10 08:26:00,64.4,61.4,27.88,North,0,2.5,5.6,90,0.00,,---,0.00,VWS V14.00,2013-05-10 12:26:00,
2013-05-10 08:27:00,64.4,61.4,27.88,North,0,2.5,2.5,90,0.00,,---,0.00,VWS V14.00,2013-05-10 12:27:00,
2013-05-10 08:28:00,64.4,61.4,27.88,NW,315,3.6,3.6,90,0.00,,---,0.00,VWS V14.00,2013-05-10 12:28:00,
2013-05-10 08:31:00,64.4,61.4,27.88,NNW,338,5.4,5.4,90,0.00,,---,0.00,VWS V14.00,2013-05-10 12:31:00,
2013-05-10 08:32:00,64.4,61.4,27.88,North,0,4.9,4.9,90,0.00,,---,0.00,VWS V14.00,2013-05-10 12:32:00,
2013-05-10 08:33:00,64.2,61.2,27.88,North,0,6.9,6.9,90,0.00,,---,0.00,VWS V14.00,2013-05-10 12:33:00,
2013-05-10 08:36:00,64.2,61.2,27.88,North,0,3.6,5.4,90,0.00,,---,0.00,VWS V14.00,2013-05-10 12:36:00,
2013-05-10 08:37:00,64.2,61.2,27.88,North,0,3.6,3.6,90,0.00,,---,0.00,VWS V14.00,2013-05-10 12:37:00,
2013-05-10 08:38:00,64.2,61.2,27.88,North,0,5.4,5.4,90,0.00,,---,0.00,VWS V14.00,2013-05-10 12:38:00,
2013-05-10 08:41:00,64.0,61.0,27.88,NNW,338,3.1,6.0,90,0.00,,---,0.00,VWS V14.00,2013-05-10 12:41:00,
2013-05-10 08:42:00,64.0,61.0,27.88,North,0,6.0,6.0,90,0.00,,---,0.00,VWS V14.00,2013-05-10 12:42:00,
2013-05-10 08:43:00,64.0,61.0,27.88,NNW,338,3.4,6.0,90,0.00,,---,0.00,VWS V14.00,2013-05-10 12:43:00,
2013-05-10 08:44:00,64.0,61.0,27.88,NNW,338,2.5,3.4,90,0.00,,---,0.00,VWS V14.00,2013-05-10 12:44:00,
2013-05-10 08:46:00,64.0,61.0,27.88,NNW,338,4.9,4.9,90,0.00,,---,0.00,VWS V14.00,2013-05-10 12:46:00,
2013-05-10 08:48:00,64.0,61.0,27.88,NNW,338,3.8,4.9,90,0.00,,---,0.00,VWS V14.00,2013-05-10 12:48:00,
2013-05-10 08:49:00,64.0,61.0,27.88,NNW,338,3.8,3.8,90,0.00,,---,0.00,VWS V14.00,2013-05-10 12:49:00,
2013-05-10 08:51:00,63.9,60.9,27.88,NNW,338,4.0,7.2,90,0.00,,---,0.00,VWS V14.00,2013-05-10 12:51:00,
2013-05-10 08:53:00,63.9,60.9,27.88,NNW,338,3.4,3.4,90,0.00,,---,0.00,VWS V14.00,2013-05-10 12:53:00,
2013-05-10 08:54:00,64.0,61.0,27.88,NNW,338,3.1,3.4,90,0.00,,---,0.00,VWS V14.00,2013-05-10 12:54:00,
2013-05-10 08:56:00,64.2,61.2,27.88,North,0,2.9,3.8,90,0.00,,---,0.00,VWS V14.00,2013-05-10 12:56:00,
2013-05-10 08:58:00,64.2,61.2,27.88,NNW,338,6.5,6.5,90,0.00,,---,0.00,VWS V14.00,2013-05-10 12:58:00,
2013-05-10 08:59:00,64.4,61.4,27.88,NNW,338,4.0,4.0,90,0.00,,---,0.00,VWS V14.00,2013-05-10 12:59:00,
2013-05-10 09:01:00,64.4,61.4,27.88,NW,315,3.1,4.7,90,0.00,,---,0.00,VWS V14.00,2013-05-10 13:01:00,
2013-05-10 09:03:00,64.8,61.8,27.88,NNE,22,3.8,3.8,90,0.00,,---,0.00,VWS V14.00,2013-05-10 13:03:00,
2013-05-10 09:04:00,64.9,61.9,27.88,NNW,338,2.9,2.9,90,0.00,,---,0.00,VWS V14.00,2013-05-10 13:04:00,
2013-05-10 09:07:00,65.1,61.8,27.88,North,0,3.1,3.1,89,0.00,,---,0.00,VWS V14.00,2013-05-10 13:07:00,
2013-05-10 09:08:00,65.5,62.2,27.88,NW,315,3.8,3.8,89,0.00,,---,0.00,VWS V14.00,2013-05-10 13:08:00,
2013-05-10 09:09:00,65.7,62.3,27.88,NNW,338,4.3,4.3,89,0.00,,---,0.00,VWS V14.00,2013-05-10 13:09:00,
2013-05-10 09:10:00,65.7,62.3,27.88,NNW,338,4.3,4.3,89,0.00,,---,0.00,VWS V14.00,2013-05-10 13:10:00,
2013-05-10 09:12:00,66.2,62.5,27.88,North,0,4.0,4.9,88,0.00,,---,0.00,VWS V14.00,2013-05-10 13:12:00,
2013-05-10 09:13:00,66.2,62.5,27.88,North,0,4.0,4.0,88,0.00,,---,0.00,VWS V14.00,2013-05-10 13:13:00,
2013-05-10 09:14:00,66.2,62.5,27.88,NNW,338,4.0,4.0,88,0.00,,---,0.00,VWS V14.00,2013-05-10 13:14:00,
2013-05-10 09:15:00,66.4,62.4,27.88,NNW,338,4.0,4.0,87,0.00,,---,0.00,VWS V14.00,2013-05-10 13:15:00,
2013-05-10 09:18:00,66.2,62.2,27.88,NNW,338,3.1,5.4,87,0.00,,---,0.00,VWS V14.00,2013-05-10 13:18:00,
2013-05-10 09:20:00,66.2,62.2,27.88,NNW,338,3.1,3.1,87,0.00,,---,0.00,VWS V14.00,2013-05-10 13:20:00,
2013-05-10 09:23:00,66.0,62.0,27.88,NNW,338,3.1,3.1,87,0.00,,---,0.00,VWS V14.00,2013-05-10 13:23:00,
2013-05-10 09:25:00,65.8,61.9,27.88,North,0,4.3,4.3,87,0.00,,---,0.00,VWS V14.00,2013-05-10 13:25:00,
2013-05-10 09:28:00,65.8,61.9,27.88,NNE,22,3.6,3.6,87,0.00,,---,0.00,VWS V14.00,2013-05-10 13:28:00,
2013-05-10 09:30:00,66.0,62.0,27.88,NNE,22,4.5,4.5,87,0.00,,---,0.00,VWS V14.00,2013-05-10 13:30:00,
2013-05-10 09:33:00,66.0,62.0,27.88,NNW,338,3.6,3.6,87,0.00,,---,0.00,VWS V14.00,2013-05-10 13:33:00,
2013-05-10 09:34:00,66.4,62.4,27.88,NNW,338,3.6,3.6,87,0.00,,---,0.00,VWS V14.00,2013-05-10 13:34:00,
2013-05-10 09:35:00,66.6,62.6,27.88,NNW,338,3.1,3.1,87,0.00,,---,0.00,VWS V14.00,2013-05-10 13:35:00,
2013-05-10 09:38:00,66.7,62.8,27.88,North,0,2.7,2.7,87,0.00,,---,0.00,VWS V14.00,2013-05-10 13:38:00,
2013-05-10 09:39:00,66.6,62.6,27.88,WNW,292,2.7,2.7,87,0.00,,---,0.00,VWS V14.00,2013-05-10 13:39:00,
2013-05-10 09:40:00,66.6,62.6,27.88,NNW,338,2.5,2.5,87,0.00,,---,0.00,VWS V14.00,2013-05-10 13:40:00,
2013-05-10 09:41:00,66.6,62.6,27.88,NNW,338,3.1,3.1,87,0.00,,---,0.00,VWS V14.00,2013-05-10 13:41:00,
2013-05-10 09:43:00,66.2,61.9,27.88,NNW,338,2.7,3.1,86,0.00,,---,0.00,VWS V14.00,2013-05-10 13:43:00,
2013-05-10 09:44:00,66.2,61.9,27.88,East,90,2.5,2.5,86,0.00,,---,0.00,VWS V14.00,2013-05-10 13:44:00,
2013-05-10 09:46:00,66.2,61.9,27.88,NNW,338,2.9,2.9,86,0.00,,---,0.00,VWS V14.00,2013-05-10 13:46:00,
2013-05-10 09:49:00,66.7,62.8,27.88,North,0,3.4,3.4,87,0.00,,---,0.00,VWS V14.00,2013-05-10 13:49:00,
2013-05-10 09:51:00,66.7,62.8,27.88,NNW,338,2.7,2.7,87,0.00,,---,0.00,VWS V14.00,2013-05-10 13:51:00,
2013-05-10 09:52:00,66.9,62.9,27.88,NNW,338,3.1,3.1,87,0.00,,---,0.00,VWS V14.00,2013-05-10 13:52:00,
2013-05-10 09:54:00,66.9,62.9,27.88,NNE,22,4.3,4.3,87,0.00,,---,0.00,VWS V14.00,2013-05-10 13:54:00,
2013-05-10 09:55:00,66.6,62.2,27.88,NNE,22,4.3,4.3,86,0.00,,---,0.00,VWS V14.00,2013-05-10 13:55:00,
2013-05-10 09:56:00,66.6,62.2,27.88,NNE,22,3.8,4.3,86,0.00,,---,0.00,VWS V14.00,2013-05-10 13:56:00,
2013-05-10 09:57:00,66.4,62.1,27.88,NNE,22,3.8,3.8,86,0.00,,---,0.00,VWS V14.00,2013-05-10 13:57:00,
2013-05-10 10:00:00,66.4,62.1,27.88,North,0,2.9,2.9,86,0.00,,---,0.00,VWS V14.00,2013-05-10 14:00:00,
2013-05-10 10:01:00,66.2,61.9,27.88,NW,315,2.7,2.7,86,0.00,,---,0.00,VWS V14.00,2013-05-10 14:01:00,
2013-05-10 10:02:00,66.2,61.9,27.88,NNW,338,2.7,2.7,86,0.00,,---,0.00,VWS V14.00,2013-05-10 14:02:00,
2013-05-10 10:05:00,66.2,61.9,27.88,NNW,338,3.1,3.1,86,0.00,,---,0.00,VWS V14.00,2013-05-10 14:05:00,
2013-05-10 10:06:00,66.2,61.9,27.88,NNW,338,3.6,3.6,86,0.00,,---,0.00,VWS V14.00,2013-05-10 14:06:00,
2013-05-10 10:07:00,66.2,61.9,27.88,North,0,2.0,2.0,86,0.00,,---,0.00,VWS V14.00,2013-05-10 14:07:00,
2013-05-10 10:10:00,66.0,61.7,27.88,North,0,4.0,4.0,86,0.00,,---,0.00,VWS V14.00,2013-05-10 14:10:00,
2013-05-10 10:11:00,66.0,61.7,27.88,North,0,3.1,4.0,86,0.00,,---,0.00,VWS V14.00,2013-05-10 14:11:00,
2013-05-10 10:12:00,66.0,61.7,27.88,WNW,292,3.8,3.8,86,0.00,,---,0.00,VWS V14.00,2013-05-10 14:12:00,
2013-05-10 10:13:00,66.0,61.7,27.88,NNW,338,3.8,3.8,86,0.00,,---,0.00,VWS V14.00,2013-05-10 14:13:00,
2013-05-10 10:15:00,66.0,62.0,27.88,NNW,338,1.6,1.6,87,0.00,,---,0.00,VWS V14.00,2013-05-10 14:15:00,
2013-05-10 10:16:00,65.8,61.9,27.88,NNW,338,2.9,2.9,87,0.00,,---,0.00,VWS V14.00,2013-05-10 14:16:00,
2013-05-10 10:17:00,65.8,61.9,27.88,NNW,338,5.6,5.6,87,0.00,,---,0.00,VWS V14.00,2013-05-10 14:17:00,
2013-05-10 10:18:00,65.8,61.9,27.88,NNW,338,3.1,3.1,87,0.00,,---,0.00,VWS V14.00,2013-05-10 14:18:00,
2013-05-10 10:20:00,65.8,61.9,27.88,NNW,338,3.1,3.1,87,0.00,,---,0.00,VWS V14.00,2013-05-10 14:20:00,
2013-05-10 10:21:00,65.8,61.9,27.88,North,0,3.4,3.4,87,0.00,,---,0.00,VWS V14.00,2013-05-10 14:21:00,
2013-05-10 10:22:00,65.8,61.9,27.88,North,0,3.6,3.6,87,0.00,,---,0.00,VWS V14.00,2013-05-10 14:22:00,
2013-05-10 10:23:00,66.0,62.0,27.88,ENE,68,2.7,2.7,87,0.00,,---,0.00,VWS V14.00,2013-05-10 14:23:00,
2013-05-10 10:25:00,66.0,62.0,27.88,North,0,2.0,2.7,87,0.00,,---,0.00,VWS V14.00,2013-05-10 14:25:00,
2013-05-10 10:26:00,66.0,62.0,27.88,North,0,2.0,2.7,87,0.00,,---,0.00,VWS V14.00,2013-05-10 14:26:00,
2013-05-10 10:27:00,66.0,62.0,27.88,North,0,2.9,2.9,87,0.00,,---,0.00,VWS V14.00,2013-05-10 14:27:00,
2013-05-10 10:28:00,66.0,62.0,27.88,North,0,2.9,2.9,87,0.00,,---,0.00,VWS V14.00,2013-05-10 14:28:00,
2013-05-10 10:30:00,66.0,62.0,27.90,ESE,112,3.6,3.6,87,0.00,,---,0.00,VWS V14.00,2013-05-10 14:30:00,
2013-05-10 10:31:00,66.0,62.0,27.90,NNW,338,2.5,3.6,87,0.00,,---,0.00,VWS V14.00,2013-05-10 14:31:00,
2013-05-10 10:32:00,66.0,62.0,27.90,NNW,338,2.5,2.5,87,0.00,,---,0.00,VWS V14.00,2013-05-10 14:32:00,
2013-05-10 10:33:00,66.2,61.9,27.90,NNW,338,3.4,3.4,86,0.00,,---,0.00,VWS V14.00,2013-05-10 14:33:00,
2013-05-10 10:34:00,66.2,61.9,27.90,North,0,2.9,2.9,86,0.00,,---,0.00,VWS V14.00,2013-05-10 14:34:00,
2013-05-10 10:35:00,66.2,61.9,27.90,NNE,22,1.3,2.9,86,0.00,,---,0.00,VWS V14.00,2013-05-10 14:35:00,
2013-05-10 10:36:00,66.2,61.9,27.90,NNW,338,2.9,2.9,86,0.00,,---,0.00,VWS V14.00,2013-05-10 14:36:00,
2013-05-10 10:37:00,66.2,61.9,27.90,WNW,292,2.5,2.5,86,0.00,,---,0.00,VWS V14.00,2013-05-10 14:37:00,
2013-05-10 10:38:00,66.4,62.1,27.90,NNW,338,2.0,2.0,86,0.00,,---,0.00,VWS V14.00,2013-05-10 14:38:00,
2013-05-10 10:39:00,66.4,62.1,27.90,NNW,338,3.6,3.6,86,0.00,,---,0.00,VWS V14.00,2013-05-10 14:39:00,
2013-05-10 10:40:00,66.4,61.7,27.90,South,180,2.0,2.9,85,0.00,,---,0.00,VWS V14.00,2013-05-10 14:40:00,
2013-05-10 10:42:00,66.6,62.2,27.90,West,270,2.9,2.9,86,0.00,,---,0.00,VWS V14.00,2013-05-10 14:42:00,
2013-05-10 10:44:00,66.6,62.2,27.88,NNE,22,1.3,1.3,86,0.00,,---,0.00,VWS V14.00,2013-05-10 14:44:00,
2013-05-10 10:46:00,66.7,62.4,27.88,NE,45,2.9,2.9,86,0.00,,---,0.00,VWS V14.00,2013-05-10 14:46:00,
2013-05-10 10:47:00,66.7,62.1,27.88,NNE,22,3.1,3.1,85,0.00,,---,0.00,VWS V14.00,2013-05-10 14:47:00,
2013-05-10 10:49:00,66.9,62.6,27.88,North,0,3.6,3.6,86,0.00,,---,0.00,VWS V14.00,2013-05-10 14:49:00,
2013-05-10 10:51:00,66.9,62.3,27.88,North,0,2.7,2.7,85,0.00,,---,0.00,VWS V14.00,2013-05-10 14:51:00,
2013-05-10 10:52:00,67.1,62.5,27.88,North,0,2.7,2.7,85,0.00,,---,0.00,VWS V14.00,2013-05-10 14:52:00,
2013-05-10 10:54:00,67.1,62.5,27.88,NNW,338,2.9,4.3,85,0.00,,---,0.00,VWS V14.00,2013-05-10 14:54:00,
2013-05-10 10:56:00,67.1,62.1,27.88,East,90,3.6,3.6,84,0.00,,---,0.00,VWS V14.00,2013-05-10 14:56:00,
2013-05-10 10:57:00,67.1,62.1,27.88,North,0,2.5,3.6,84,0.00,,---,0.00,VWS V14.00,2013-05-10 14:57:00,
2013-05-10 10:59:00,67.1,62.1,27.88,NNE,22,4.9,5.6,84,0.00,,---,0.00,VWS V14.00,2013-05-10 14:59:00,
2013-05-10 11:01:00,67.5,62.5,27.88,North,0,3.8,3.8,84,0.00,,---,0.00,VWS V14.00,2013-05-10 15:01:00,
2013-05-10 11:03:00,67.5,62.8,27.88,NNW,338,2.0,2.0,85,0.00,,---,0.00,VWS V14.00,2013-05-10 15:03:00,
2013-05-10 11:05:00,67.5,62.8,27.88,NNW,338,1.3,3.1,85,0.00,,---,0.00,VWS V14.00,2013-05-10 15:05:00,
2013-05-10 11:06:00,67.8,62.8,27.88,NNE,22,3.8,3.8,84,0.00,,---,0.00,VWS V14.00,2013-05-10 15:06:00,
2013-05-10 11:08:00,67.6,62.6,27.88,North,0,2.7,3.8,84,0.00,,---,0.00,VWS V14.00,2013-05-10 15:08:00,
2013-05-10 11:10:00,67.5,62.5,27.88,SSE,158,3.1,3.1,84,0.00,,---,0.00,VWS V14.00,2013-05-10 15:10:00,
2013-05-10 11:11:00,67.5,62.5,27.88,NE,45,2.7,2.9,84,0.00,,---,0.00,VWS V14.00,2013-05-10 15:11:00,
2013-05-10 11:13:00,67.6,62.6,27.88,ENE,68,3.1,3.1,84,0.00,,---,0.00,VWS V14.00,2013-05-10 15:13:00,
2013-05-10 11:15:00,67.6,62.3,27.88,NE,45,3.6,3.6,83,0.00,,---,0.00,VWS V14.00,2013-05-10 15:15:00,
2013-05-10 11:17:00,67.5,62.1,27.88,NE,45,5.4,5.4,83,0.00,,---,0.00,VWS V14.00,2013-05-10 15:17:00,
2013-05-10 11:18:00,67.5,62.1,27.88,North,0,3.4,3.4,83,0.00,,---,0.00,VWS V14.00,2013-05-10 15:18:00,
2013-05-10 11:20:00,67.5,62.1,27.88,West,270,1.6,2.7,83,0.00,,---,0.00,VWS V14.00,2013-05-10 15:20:00,
2013-05-10 11:21:00,67.5,62.1,27.88,West,270,1.6,1.6,83,0.00,,---,0.00,VWS V14.00,2013-05-10 15:21:00,
2013-05-10 11:22:00,67.5,62.1,27.88,WNW,292,2.5,2.5,83,0.00,,---,0.00,VWS V14.00,2013-05-10 15:22:00,
2013-05-10 11:23:00,67.3,62.0,27.88,ENE,68,5.4,5.4,83,0.00,,---,0.00,VWS V14.00,2013-05-10 15:23:00,
2013-05-10 11:25:00,67.3,62.0,27.88,NNE,22,3.1,3.1,83,0.00,,---,0.00,VWS V14.00,2013-05-10 15:25:00,
2013-05-10 11:26:00,67.3,62.0,27.88,NNE,22,3.1,3.1,83,0.00,,---,0.00,VWS V14.00,2013-05-10 15:26:00,
2013-05-10 11:27:00,67.1,61.8,27.88,NE,45,3.6,3.6,83,0.00,,---,0.00,VWS V14.00,2013-05-10 15:27:00,
2013-05-10 11:28:00,67.1,61.8,27.88,NW,315,2.2,3.6,83,0.00,,---,0.00,VWS V14.00,2013-05-10 15:28:00,
2013-05-10 11:29:00,67.1,61.8,27.88,NW,315,3.4,3.4,83,0.00,,---,0.00,VWS V14.00,2013-05-10 15:29:00,
2013-05-10 11:31:00,67.1,61.8,27.88,NNW,338,2.9,2.9,83,0.00,,---,0.00,VWS V14.00,2013-05-10 15:31:00,
2013-05-10 11:32:00,67.3,62.0,27.88,NE,45,2.9,2.9,83,0.00,,---,0.00,VWS V14.00,2013-05-10 15:32:00,
2013-05-10 11:33:00,67.3,62.0,27.88,NE,45,2.9,2.9,83,0.00,,---,0.00,VWS V14.00,2013-05-10 15:33:00,
2013-05-10 11:34:00,67.3,62.0,27.88,NNW,338,1.6,2.9,83,0.00,,---,0.00,VWS V14.00,2013-05-10 15:34:00,
2013-05-10 11:36:00,67.5,62.1,27.88,NNW,338,2.5,3.1,83,0.00,,---,0.00,VWS V14.00,2013-05-10 15:36:00,
2013-05-10 11:38:00,67.6,62.3,27.88,NNE,22,2.2,2.2,83,0.00,,---,0.00,VWS V14.00,2013-05-10 15:38:00,
2013-05-10 11:39:00,67.6,62.3,27.88,NE,45,4.3,4.3,83,0.00,,---,0.00,VWS V14.00,2013-05-10 15:39:00,
2013-05-10 11:41:00,67.5,61.8,27.88,East,90,0.0,1.6,82,0.00,,---,0.00,VWS V14.00,2013-05-10 15:41:00,
2013-05-10 11:43:00,67.8,62.5,27.88,NNW,338,1.6,1.6,83,0.00,,---,0.00,VWS V14.00,2013-05-10 15:43:00,
2013-05-10 11:44:00,68.0,62.7,27.88,East,90,2.0,2.0,83,0.00,,---,0.00,VWS V14.00,2013-05-10 15:44:00,
2013-05-10 11:45:00,68.0,62.7,27.88,East,90,2.0,2.0,83,0.00,,---,0.00,VWS V14.00,2013-05-10 15:45:00,
2013-05-10 11:46:00,68.2,62.8,27.88,NE,45,3.1,3.1,83,0.00,,---,0.00,VWS V14.00,2013-05-10 15:46:00,
2013-05-10 11:48:00,68.0,62.3,27.88,North,0,2.7,2.7,82,0.00,,---,0.00,VWS V14.00,2013-05-10 15:48:00,
2013-05-10 11:50:00,68.0,62.3,27.88,NNW,338,3.4,3.4,82,0.00,,---,0.00,VWS V14.00,2013-05-10 15:50:00,
2013-05-10 11:52:00,67.8,61.8,27.88,South,180,3.8,3.8,81,0.00,,---,0.00,VWS V14.00,2013-05-10 15:52:00,
2013-05-10 11:53:00,68.0,61.6,27.88,NE,45,2.5,2.5,80,0.00,,---,0.00,VWS V14.00,2013-05-10 15:53:00,
2013-05-10 11:55:00,68.0,61.6,27.88,NE,45,2.9,2.9,80,0.00,,---,0.00,VWS V14.00,2013-05-10 15:55:00,
2013-05-10 11:57:00,68.4,62.3,27.88,East,90,1.3,1.3,81,0.00,,---,0.00,VWS V14.00,2013-05-10 15:57:00,
2013-05-10 11:58:00,68.4,62.0,27.88,NNW,338,3.4,4.0,80,0.00,,---,0.00,VWS V14.00,2013-05-10 15:58:00,
2013-05-10 12:00:00,68.4,62.0,27.88,NNW,338,2.0,2.0,80,0.00,,---,0.00,VWS V14.00,2013-05-10 16:00:00,
2013-05-10 12:02:00,68.5,62.1,27.88,North,0,3.4,3.4,80,0.00,,---,0.00,VWS V14.00,2013-05-10 16:02:00,
2013-05-10 12:03:00,68.5,62.1,27.88,NE,45,2.5,3.4,80,0.00,,---,0.00,VWS V14.00,2013-05-10 16:03:00,
2013-05-10 12:04:00,68.5,62.1,27.88,NE,45,2.5,3.4,80,0.00,,---,0.00,VWS V14.00,2013-05-10 16:04:00,
2013-05-10 12:05:00,68.5,62.1,27.88,NNW,338,0.0,0.0,80,0.00,,---,0.00,VWS V14.00,2013-05-10 16:05:00,
2013-05-10 12:06:00,68.5,62.1,27.88,SSW,202,2.0,2.0,80,0.00,,---,0.00,VWS V14.00,2013-05-10 16:06:00,
2013-05-10 12:08:00,68.4,61.6,27.88,West,270,2.7,6.3,79,0.00,,---,0.00,VWS V14.00,2013-05-10 16:08:00,
2013-05-10 12:09:00,68.4,61.6,27.88,East,90,2.0,2.0,79,0.00,,---,0.00,VWS V14.00,2013-05-10 16:09:00,
2013-05-10 12:10:00,68.2,61.4,27.88,NNE,22,2.0,2.2,79,0.00,,---,0.00,VWS V14.00,2013-05-10 16:10:00,
2013-05-10 12:11:00,68.2,61.4,27.88,NNE,22,2.0,2.0,79,0.00,,---,0.00,VWS V14.00,2013-05-10 16:11:00,
2013-05-10 12:13:00,68.7,62.3,27.88,ENE,68,1.6,1.6,80,0.00,,---,0.00,VWS V14.00,2013-05-10 16:13:00,
2013-05-10 12:14:00,68.7,62.3,27.88,WSW,248,4.0,4.0,80,0.00,,---,0.00,VWS V14.00,2013-05-10 16:14:00,
2013-05-10 12:15:00,68.7,62.0,27.88,North,0,3.1,3.1,79,0.00,,---,0.00,VWS V14.00,2013-05-10 16:15:00,
2013-05-10 12:16:00,68.7,62.0,27.88,North,0,3.1,3.1,79,0.00,,---,0.00,VWS V14.00,2013-05-10 16:16:00,
2013-05-10 12:18:00,68.9,62.1,27.88,ENE,68,2.0,2.7,79,0.00,,---,0.00,VWS V14.00,2013-05-10 16:18:00,
2013-05-10 12:19:00,68.9,62.1,27.88,ENE,68,2.0,2.0,79,0.00,,---,0.00,VWS V14.00,2013-05-10 16:19:00,
2013-05-10 12:21:00,69.3,62.5,27.88,NNW,338,2.7,2.7,79,0.00,,---,0.00,VWS V14.00,2013-05-10 16:21:00,
2013-05-10 12:22:00,69.4,62.3,27.88,North,0,5.4,5.4,78,0.00,,---,0.00,VWS V14.00,2013-05-10 16:22:00,
2013-05-10 12:23:00,69.4,61.9,27.88,North,0,3.4,3.4,77,0.00,,---,0.00,VWS V14.00,2013-05-10 16:23:00,
2013-05-10 12:24:00,69.4,61.9,27.88,North,0,2.2,3.4,77,0.00,,---,0.00,VWS V14.00,2013-05-10 16:24:00,
2013-05-10 12:26:00,69.4,61.5,27.88,ENE,68,2.7,2.7,76,0.00,,---,0.00,VWS V14.00,2013-05-10 16:26:00,
2013-05-10 12:27:00,69.6,62.1,27.88,ENE,68,2.5,2.5,77,0.00,,---,0.00,VWS V14.00,2013-05-10 16:27:00,
2013-05-10 12:28:00,69.6,62.1,27.88,NE,45,1.6,1.6,77,0.00,,---,0.00,VWS V14.00,2013-05-10 16:28:00,
2013-05-10 12:29:00,69.8,61.9,27.88,NNW,338,3.6,3.6,76,0.00,,---,0.00,VWS V14.00,2013-05-10 16:29:00,
2013-05-10 12:31:00,70.2,62.2,27.88,ESE,112,0.0,0.0,76,0.00,,---,0.00,VWS V14.00,2013-05-10 16:31:00,
2013-05-10 12:33:00,70.5,63.0,27.88,East,90,2.7,2.7,77,0.00,,---,0.00,VWS V14.00,2013-05-10 16:33:00,
2013-05-10 12:34:00,70.5,63.0,27.88,East,90,2.0,2.0,77,0.00,,---,0.00,VWS V14.00,2013-05-10 16:34:00,
2013-05-10 12:37:00,70.3,62.0,27.88,NE,45,1.6,3.8,75,0.00,,---,0.00,VWS V14.00,2013-05-10 16:37:00,
2013-05-10 12:38:00,70.3,62.0,27.88,North,0,2.7,2.7,75,0.00,,---,0.00,VWS V14.00,2013-05-10 16:38:00,
2013-05-10 12:39:00,70.3,62.0,27.88,NE,45,1.6,1.6,75,0.00,,---,0.00,VWS V14.00,2013-05-10 16:39:00,
2013-05-10 12:42:00,70.7,62.4,27.88,NNE,22,2.5,2.5,75,0.00,,---,0.00,VWS V14.00,2013-05-10 16:42:00,
2013-05-10 12:43:00,70.9,62.6,27.88,ENE,68,2.0,2.0,75,0.00,,---,0.00,VWS V14.00,2013-05-10 16:43:00,
2013-05-10 12:44:00,70.9,62.6,27.88,NE,45,1.3,2.5,75,0.00,,---,0.00,VWS V14.00,2013-05-10 16:44:00,
2013-05-10 12:45:00,71.1,62.4,27.88,NW,315,3.4,3.4,74,0.00,,---,0.00,VWS V14.00,2013-05-10 16:45:00,
2013-05-10 12:47:00,71.2,62.2,27.88,North,0,1.6,3.6,73,0.00,,---,0.00,VWS V14.00,2013-05-10 16:47:00,
2013-05-10 12:48:00,71.2,61.8,27.88,North,0,2.7,2.7,72,0.00,,---,0.00,VWS V14.00,2013-05-10 16:48:00,
2013-05-10 12:49:00,71.2,61.8,27.88,North,0,2.7,2.7,72,0.00,,---,0.00,VWS V14.00,2013-05-10 16:49:00,
2013-05-10 12:51:00,71.6,61.7,27.88,NNW,338,2.5,2.7,71,0.00,,---,0.00,VWS V14.00,2013-05-10 16:51:00,
2013-05-10 12:52:00,71.6,61.7,27.88,NNE,22,2.7,2.7,71,0.00,,---,0.00,VWS V14.00,2013-05-10 16:52:00,
2013-05-10 12:53:00,71.4,61.1,27.88,NE,45,3.1,3.1,70,0.00,,---,0.00,VWS V14.00,2013-05-10 16:53:00,
2013-05-10 12:54:00,71.4,61.1,27.88,NE,45,2.7,2.7,70,0.00,,---,0.00,VWS V14.00,2013-05-10 16:54:00,
2013-05-10 12:56:00,71.6,61.7,27.88,NE,45,3.1,3.1,71,0.00,,---,0.00,VWS V14.00,2013-05-10 16:56:00,
2013-05-10 12:58:00,72.1,62.2,27.88,ENE,68,2.5,2.5,71,0.00,,---,0.00,VWS V14.00,2013-05-10 16:58:00,
2013-05-10 12:59:00,72.1,62.2,27.88,ENE,68,2.5,2.5,71,0.00,,---,0.00,VWS V14.00,2013-05-10 16:59:00,
2013-05-10 13:02:00,72.3,62.0,27.88,SSW,202,3.4,3.4,70,0.00,,---,0.00,VWS V14.00,2013-05-10 17:02:00,
2013-05-10 13:03:00,72.3,62.0,27.88,WNW,292,3.4,3.4,70,0.00,,---,0.00,VWS V14.00,2013-05-10 17:03:00,
2013-05-10 13:04:00,72.1,61.8,27.88,WNW,292,3.4,3.4,70,0.00,,---,0.00,VWS V14.00,2013-05-10 17:04:00,
2013-05-10 13:07:00,72.3,62.0,27.88,NNE,22,2.7,3.1,70,0.00,,---,0.00,VWS V14.00,2013-05-10 17:07:00,
2013-05-10 13:09:00,72.7,62.3,27.88,NW,315,7.2,7.2,70,0.00,,---,0.00,VWS V14.00,2013-05-10 17:09:00,
2013-05-10 13:10:00,72.9,62.1,27.88,NNW,338,3.6,3.6,69,0.00,,---,0.00,VWS V14.00,2013-05-10 17:10:00,
2013-05-10 13:12:00,72.5,60.9,27.88,East,90,2.0,7.6,67,0.00,,---,0.00,VWS V14.00,2013-05-10 17:12:00,
2013-05-10 13:14:00,72.3,60.8,27.88,NNE,22,2.7,3.8,67,0.00,,---,0.00,VWS V14.00,2013-05-10 17:14:00,
2013-05-10 13:15:00,72.3,61.2,27.88,North,0,4.0,4.0,68,0.00,,---,0.00,VWS V14.00,2013-05-10 17:15:00,
2013-05-10 13:18:00,72.1,60.6,27.88,WSW,248,2.0,2.0,67,0.00,,---,0.00,VWS V14.00,2013-05-10 17:18:00,
2013-05-10 13:19:00,72.1,61.0,27.88,North,0,4.3,4.3,68,0.00,,---,0.00,VWS V14.00,2013-05-10 17:19:00,
2013-05-10 13:20:00,71.8,60.2,27.88,North,0,2.2,2.2,67,0.00,,---,0.00,VWS V14.00,2013-05-10 17:20:00,
2013-05-10 13:23:00,71.4,60.3,27.88,WSW,248,3.6,3.6,68,0.00,,---,0.00,VWS V14.00,2013-05-10 17:23:00,
2013-05-10 13:24:00,71.4,60.7,27.88,WSW,248,1.6,2.0,69,0.00,,---,0.00,VWS V14.00,2013-05-10 17:24:00,
2013-05-10 13:25:00,71.4,60.7,27.88,WSW,248,1.6,2.0,69,0.00,,---,0.00,VWS V14.00,2013-05-10 17:25:00,
2013-05-10 13:26:00,71.6,60.5,27.88,North,0,3.8,3.8,68,0.00,,---,0.00,VWS V14.00,2013-05-10 17:26:00,
2013-05-10 13:29:00,71.2,60.6,27.85,NE,45,3.8,3.8,69,0.00,,---,0.00,VWS V14.00,2013-05-10 17:29:00,
2013-05-10 13:30:00,71.2,60.6,27.85,ENE,68,3.1,3.1,69,0.00,,---,0.00,VWS V14.00,2013-05-10 17:30:00,
2013-05-10 13:31:00,71.2,60.6,27.85,East,90,3.6,3.6,69,0.00,,---,0.00,VWS V14.00,2013-05-10 17:31:00,
2013-05-10 13:35:00,71.4,60.3,27.85,ESE,112,2.9,2.9,68,0.00,,---,0.00,VWS V14.00,2013-05-10 17:35:00,
2013-05-10 13:36:00,71.2,60.2,27.85,ENE,68,2.9,2.9,68,0.00,,---,0.00,VWS V14.00,2013-05-10 17:36:00,
2013-05-10 13:40:00,71.2,60.2,27.85,NNE,22,2.5,2.5,68,0.00,,---,0.00,VWS V14.00,2013-05-10 17:40:00,
2013-05-10 13:41:00,71.4,60.7,27.85,WSW,248,2.0,2.0,69,0.00,,---,0.00,VWS V14.00,2013-05-10 17:41:00,
2013-05-10 13:42:00,71.4,60.7,27.85,North,0,2.5,2.5,69,0.00,,---,0.00,VWS V14.00,2013-05-10 17:42:00,
2013-05-10 13:45:00,71.4,61.1,27.88,ESE,112,1.1,1.1,70,0.00,,---,0.00,VWS V14.00,2013-05-10 17:45:00,
2013-05-10 13:46:00,71.4,61.1,27.88,North,0,3.6,3.6,70,0.00,,---,0.00,VWS V14.00,2013-05-10 17:46:00,
2013-05-10 13:47:00,71.4,61.1,27.88,NNE,22,2.7,2.7,70,0.00,,---,0.00,VWS V14.00,2013-05-10 17:47:00,
2013-05-10 13:50:00,71.6,60.9,27.88,North,0,2.5,2.5,69,0.00,,---,0.00,VWS V14.00,2013-05-10 17:50:00,
2013-05-10 13:51:00,71.6,60.9,27.88,NE,45,3.4,3.4,69,0.00,,---,0.00,VWS V14.00,2013-05-10 17:51:00,
2013-05-10 13:52:00,71.6,60.9,27.88,ENE,68,1.3,3.4,69,0.00,,---,0.00,VWS V14.00,2013-05-10 17:52:00,
2013-05-10 13:55:00,71.4,60.7,27.88,NNW,338,2.9,3.4,69,0.00,,---,0.00,VWS V14.00,2013-05-10 17:55:00,
2013-05-10 13:56:00,71.4,60.7,27.88,NNW,338,2.9,2.9,69,0.00,,---,0.00,VWS V14.00,2013-05-10 17:56:00,
2013-05-10 13:57:00,71.6,60.9,27.88,WSW,248,2.2,2.2,69,0.00,,---,0.00,VWS V14.00,2013-05-10 17:57:00,
2013-05-10 13:58:00,71.6,60.9,27.85,WNW,292,2.7,2.7,69,0.00,,---,0.00,VWS V14.00,2013-05-10 17:58:00,
2013-05-10 14:01:00,72.0,61.7,27.85,NNW,338,0.9,0.9,70,0.00,,---,0.00,VWS V14.00,2013-05-10 18:01:00,
2013-05-10 14:02:00,72.0,61.2,27.85,NNW,338,1.1,1.1,69,0.00,,---,0.00,VWS V14.00,2013-05-10 18:02:00,
2013-05-10 14:04:00,72.0,61.2,27.85,NNE,22,3.8,3.8,69,0.00,,---,0.00,VWS V14.00,2013-05-10 18:04:00,
2013-05-10 14:06:00,71.6,60.9,27.85,ENE,68,2.7,2.7,69,0.00,,---,0.00,VWS V14.00,2013-05-10 18:06:00,
2013-05-10 14:07:00,71.6,60.9,27.85,NNW,338,2.2,2.2,69,0.00,,---,0.00,VWS V14.00,2013-05-10 18:07:00,
2013-05-10 14:08:00,71.8,60.7,27.85,North,0,2.5,3.1,68,0.00,,---,0.00,VWS V14.00,2013-05-10 18:08:00,
2013-05-10 14:09:00,71.8,60.7,27.85,North,0,2.5,2.5,68,0.00,,---,0.00,VWS V14.00,2013-05-10 18:09:00,
2013-05-10 14:11:00,71.6,60.5,27.85,North,0,2.7,2.7,68,0.00,,---,0.00,VWS V14.00,2013-05-10 18:11:00,
2013-05-10 14:12:00,71.4,60.3,27.85,North,0,1.6,1.6,68,0.00,,---,0.00,VWS V14.00,2013-05-10 18:12:00,
2013-05-10 14:13:00,71.6,60.1,27.85,NW,315,2.5,3.6,67,0.00,,---,0.00,VWS V14.00,2013-05-10 18:13:00,
2013-05-10 14:14:00,71.6,60.1,27.85,NNW,338,4.0,4.0,67,0.00,,---,0.00,VWS V14.00,2013-05-10 18:14:00,
2013-05-10 14:16:00,71.4,60.3,27.85,NE,45,2.9,2.9,68,0.00,,---,0.00,VWS V14.00,2013-05-10 18:16:00,
2013-05-10 14:17:00,71.4,60.3,27.85,NE,45,2.2,2.2,68,0.00,,---,0.00,VWS V14.00,2013-05-10 18:17:00,
2013-05-10 14:18:00,71.4,60.3,27.85,North,0,3.8,4.5,68,0.00,,---,0.00,VWS V14.00,2013-05-10 18:18:00,
2013-05-10 14:19:00,71.4,60.3,27.85,North,0,3.8,3.8,68,0.00,,---,0.00,VWS V14.00,2013-05-10 18:19:00,
2013-05-10 14:21:00,71.4,60.3,27.85,West,270,2.7,2.7,68,0.00,,---,0.00,VWS V14.00,2013-05-10 18:21:00,
2013-05-10 14:22:00,71.4,60.3,27.85,NW,315,3.4,3.4,68,0.00,,---,0.00,VWS V14.00,2013-05-10 18:22:00,
2013-05-10 14:24:00,71.6,60.5,27.85,NE,45,3.1,3.1,68,0.00,,---,0.00,VWS V14.00,2013-05-10 18:24:00,
2013-05-10 14:26:00,71.8,60.7,27.85,NNE,22,2.7,2.7,68,0.00,,---,0.00,VWS V14.00,2013-05-10 18:26:00,
2013-05-10 14:27:00,71.8,60.7,27.85,WNW,292,1.3,2.0,68,0.00,,---,0.00,VWS V14.00,2013-05-10 18:27:00,
2013-05-10 14:29:00,72.0,61.2,27.85,NE,45,3.8,3.8,69,0.00,,---,0.00,VWS V14.00,2013-05-10 18:29:00,
2013-05-10 14:31:00,72.0,61.2,27.85,NW,315,1.3,2.0,69,0.00,,---,0.00,VWS V14.00,2013-05-10 18:31:00,
2013-05-10 14:32:00,72.0,61.2,27.85,ENE,68,1.6,1.6,69,0.00,,---,0.00,VWS V14.00,2013-05-10 18:32:00,
2013-05-10 14:34:00,71.8,60.7,27.85,WNW,292,3.1,3.1,68,0.00,,---,0.00,VWS V14.00,2013-05-10 18:34:00,
2013-05-10 14:36:00,72.0,60.8,27.85,NNW,338,3.1,3.1,68,0.00,,---,0.00,VWS V14.00,2013-05-10 18:36:00,
2013-05-10 14:37:00,72.0,60.8,27.85,NNW,338,3.1,3.1,68,0.00,,---,0.00,VWS V14.00,2013-05-10 18:37:00,
2013-05-10 14:39:00,72.1,61.0,27.85,NNW,338,3.8,3.8,68,0.00,,---,0.00,VWS V14.00,2013-05-10 18:39:00,
2013-05-10 14:41:00,72.1,61.0,27.85,North,0,2.7,2.7,68,0.00,,---,0.00,VWS V14.00,2013-05-10 18:41:00,
2013-05-10 14:42:00,72.3,61.2,27.85,NW,315,3.4,3.4,68,0.00,,---,0.00,VWS V14.00,2013-05-10 18:42:00,
2013-05-10 14:44:00,72.3,61.2,27.85,North,0,2.5,2.7,68,0.00,,---,0.00,VWS V14.00,2013-05-10 18:44:00,
2013-05-10 14:45:00,72.3,61.2,27.85,North,0,2.5,2.5,68,0.00,,---,0.00,VWS V14.00,2013-05-10 18:45:00,
2013-05-10 14:46:00,72.3,61.2,27.85,NNW,338,4.0,4.0,68,0.00,,---,0.00,VWS V14.00,2013-05-10 18:46:00,
2013-05-10 14:47:00,72.5,61.3,27.85,East,90,2.5,2.5,68,0.00,,---,0.00,VWS V14.00,2013-05-10 18:47:00,
2013-05-10 14:49:00,72.5,61.3,27.85,NNW,338,4.3,4.3,68,0.00,,---,0.00,VWS V14.00,2013-05-10 18:49:00,
2013-05-10 14:50:00,72.3,61.2,27.85,NE,45,2.2,4.3,68,0.00,,---,0.00,VWS V14.00,2013-05-10 18:50:00,
2013-05-10 14:52:00,72.3,61.2,27.85,WSW,248,2.5,2.5,68,0.00,,---,0.00,VWS V14.00,2013-05-10 18:52:00,
2013-05-10 14:55:00,72.3,61.2,27.85,WSW,248,1.3,2.0,68,0.00,,---,0.00,VWS V14.00,2013-05-10 18:55:00,
2013-05-10 14:57:00,72.5,61.3,27.85,NW,315,1.1,1.1,68,0.00,,---,0.00,VWS V14.00,2013-05-10 18:57:00,
2013-05-10 14:58:00,72.5,61.3,27.82,NE,45,2.7,2.7,68,0.00,,---,0.00,VWS V14.00,2013-05-10 18:58:00,
2013-05-10 15:00:00,72.7,61.5,27.82,WNW,292,0.0,2.2,68,0.00,,---,0.00,VWS V14.00,2013-05-10 19:00:00,
2013-05-10 15:02:00,73.0,61.9,27.82,NNW,338,2.5,2.9,68,0.00,,---,0.00,VWS V14.00,2013-05-10 19:02:00,
2013-05-10 15:03:00,73.0,61.9,27.82,NNW,338,2.5,2.5,68,0.00,,---,0.00,VWS V14.00,2013-05-10 19:03:00,
2013-05-10 15:05:00,73.2,62.5,27.82,NNE,22,3.6,3.6,69,0.00,,---,0.00,VWS V14.00,2013-05-10 19:05:00,
2013-05-10 15:07:00,73.2,62.0,27.82,WSW,248,1.1,2.2,68,0.00,,---,0.00,VWS V14.00,2013-05-10 19:07:00,
2013-05-10 15:08:00,73.2,62.0,27.82,WSW,248,1.1,1.1,68,0.00,,---,0.00,VWS V14.00,2013-05-10 19:08:00,
2013-05-10 15:10:00,73.2,62.0,27.82,NNE,22,3.1,3.1,68,0.00,,---,0.00,VWS V14.00,2013-05-10 19:10:00,
2013-05-10 15:11:00,73.2,62.0,27.82,NNE,22,3.1,3.1,68,0.00,,---,0.00,VWS V14.00,2013-05-10 19:11:00,
2013-05-10 15:12:00,73.0,61.9,27.82,ENE,68,2.2,2.2,68,0.00,,---,0.00,VWS V14.00,2013-05-10 19:12:00,
2013-05-10 15:13:00,73.0,61.9,27.82,ENE,68,2.2,2.2,68,0.00,,---,0.00,VWS V14.00,2013-05-10 19:13:00,
2013-05-10 15:15:00,73.0,62.3,27.82,NE,45,3.1,3.1,69,0.00,,---,0.00,VWS V14.00,2013-05-10 19:15:00,
2013-05-10 15:16:00,73.0,62.3,27.82,East,90,1.3,1.3,69,0.00,,---,0.00,VWS V14.00,2013-05-10 19:16:00,
2013-05-10 15:17:00,73.0,61.9,27.82,North,0,1.3,2.9,68,0.00,,---,0.00,VWS V14.00,2013-05-10 19:17:00,
2013-05-10 15:18:00,73.0,61.9,27.82,North,0,1.3,1.3,68,0.00,,---,0.00,VWS V14.00,2013-05-10 19:18:00,
2013-05-10 15:19:00,72.9,61.7,27.82,WNW,292,1.6,1.6,68,0.00,,---,0.00,VWS V14.00,2013-05-10 19:19:00,
2013-05-10 15:20:00,72.9,61.7,27.82,West,270,3.8,3.8,68,0.00,,---,0.00,VWS V14.00,2013-05-10 19:20:00,
2013-05-10 15:21:00,72.7,61.5,27.82,ENE,68,3.8,3.8,68,0.00,,---,0.00,VWS V14.00,2013-05-10 19:21:00,
2013-05-10 15:23:00,72.5,61.3,27.82,North,0,2.0,2.7,68,0.00,,---,0.00,VWS V14.00,2013-05-10 19:23:00,
2013-05-10 15:24:00,72.5,61.3,27.82,North,0,2.0,2.0,68,0.00,,---,0.00,VWS V14.00,2013-05-10 19:24:00,
2013-05-10 15:25:00,72.5,61.3,27.82,NNW,338,3.1,3.1,68,0.00,,---,0.00,VWS V14.00,2013-05-10 19:25:00,
2013-05-10 15:26:00,72.1,61.0,27.82,East,90,2.5,3.1,68,0.00,,---,0.00,VWS V14.00,2013-05-10 19:26:00,
2013-05-10 15:28:00,72.1,61.4,27.82,North,0,2.7,2.7,69,0.00,,---,0.00,VWS V14.00,2013-05-10 19:28:00,
2013-05-10 15:29:00,72.1,61.4,27.82,North,0,2.7,2.7,69,0.00,,---,0.00,VWS V14.00,2013-05-10 19:29:00,
2013-05-10 15:30:00,72.1,61.4,27.82,North,0,2.7,2.7,69,0.00,,---,0.00,VWS V14.00,2013-05-10 19:30:00,
2013-05-10 15:32:00,72.3,61.6,27.82,ENE,68,2.5,2.5,69,0.00,,---,0.00,VWS V14.00,2013-05-10 19:32:00,
2013-05-10 15:33:00,72.5,61.8,27.82,ENE,68,2.0,2.0,69,0.00,,---,0.00,VWS V14.00,2013-05-10 19:33:00,
2013-05-10 15:34:00,72.7,61.9,27.82,WNW,292,1.3,2.0,69,0.00,,---,0.00,VWS V14.00,2013-05-10 19:34:00,
2013-05-10 15:36:00,72.7,61.9,27.82,North,0,1.3,1.3,69,0.00,,---,0.00,VWS V14.00,2013-05-10 19:36:00,
2013-05-10 15:37:00,72.5,61.3,27.82,NE,45,2.5,2.5,68,0.00,,---,0.00,VWS V14.00,2013-05-10 19:37:00,
2013-05-10 15:39:00,72.5,60.9,27.82,ENE,68,2.2,2.2,67,0.00,,---,0.00,VWS V14.00,2013-05-10 19:39:00,
2013-05-10 15:40:00,72.5,61.3,27.82,North,0,2.0,3.1,68,0.00,,---,0.00,VWS V14.00,2013-05-10 19:40:00,
2013-05-10 15:41:00,72.5,61.3,27.82,North,0,2.0,2.0,68,0.00,,---,0.00,VWS V14.00,2013-05-10 19:41:00,
2013-05-10 15:42:00,72.3,61.2,27.82,NNW,338,4.9,4.9,68,0.00,,---,0.00,VWS V14.00,2013-05-10 19:42:00,
2013-05-10 15:44:00,72.1,60.6,27.82,ENE,68,1.1,1.1,67,0.00,,---,0.00,VWS V14.00,2013-05-10 19:44:00,
2013-05-10 15:45:00,72.3,61.2,27.82,North,0,2.5,2.7,68,0.00,,---,0.00,VWS V14.00,2013-05-10 19:45:00,
2013-05-10 15:46:00,72.3,61.2,27.82,ENE,68,3.1,3.1,68,0.00,,---,0.00,VWS V14.00,2013-05-10 19:46:00,
2013-05-10 15:47:00,72.3,61.2,27.82,NE,45,2.2,3.1,68,0.00,,---,0.00,VWS V14.00,2013-05-10 19:47:00,
2013-05-10 15:49:00,72.1,60.6,27.82,SE,135,2.0,2.0,67,0.00,,---,0.00,VWS V14.00,2013-05-10 19:49:00,
2013-05-10 15:50:00,72.1,61.0,27.82,SSE,158,1.3,1.3,68,0.00,,---,0.00,VWS V14.00,2013-05-10 19:50:00,
2013-05-10 15:51:00,72.1,61.0,27.82,SSE,158,1.3,1.3,68,0.00,,---,0.00,VWS V14.00,2013-05-10 19:51:00,
2013-05-10 15:52:00,72.1,60.6,27.82,North,0,3.4,3.4,67,0.00,,---,0.00,VWS V14.00,2013-05-10 19:52:00,
2013-05-10 15:54:00,72.0,60.4,27.82,North,0,2.7,2.7,67,0.00,,---,0.00,VWS V14.00,2013-05-10 19:54:00,
2013-05-10 15:56:00,71.6,60.1,27.82,NW,315,1.6,2.7,67,0.00,,---,0.00,VWS V14.00,2013-05-10 19:56:00,
2013-05-10 15:57:00,71.6,60.1,27.82,West,270,2.0,5.6,67,0.00,,---,0.00,VWS V14.00,2013-05-10 19:57:00,
2013-05-10 16:00:00,71.6,60.1,27.82,North,0,2.2,2.2,67,0.00,,---,0.00,VWS V14.00,2013-05-10 20:00:00,
2013-05-10 16:01:00,71.6,60.1,27.82,NNW,338,1.6,2.2,67,0.00,,---,0.00,VWS V14.00,2013-05-10 20:01:00,
2013-05-10 16:03:00,71.6,60.5,27.82,NNW,338,1.3,1.3,68,0.00,,---,0.00,VWS V14.00,2013-05-10 20:03:00,
2013-05-10 16:05:00,71.6,60.5,27.82,NNW,338,4.0,4.0,68,0.00,,---,0.00,VWS V14.00,2013-05-10 20:05:00,
2013-05-10 16:06:00,71.2,60.2,27.82,NNE,22,3.1,4.0,68,0.00,,---,0.00,VWS V14.00,2013-05-10 20:06:00,
2013-05-10 16:08:00,71.1,60.0,27.82,WNW,292,2.5,4.0,68,0.00,,---,0.00,VWS V14.00,2013-05-10 20:08:00,
2013-05-10 16:10:00,70.9,59.8,27.82,SSW,202,1.1,1.1,68,0.00,,---,0.00,VWS V14.00,2013-05-10 20:10:00,
2013-05-10 16:11:00,70.9,59.8,27.82,North,0,2.5,2.5,68,0.00,,---,0.00,VWS V14.00,2013-05-10 20:11:00,
2013-05-10 16:12:00,70.9,59.8,27.82,NNW,338,2.7,2.7,68,0.00,,---,0.00,VWS V14.00,2013-05-10 20:12:00,
2013-05-10 16:13:00,70.7,59.6,27.79,NE,45,3.8,3.8,68,0.00,,---,0.00,VWS V14.00,2013-05-10 20:13:00,
2013-05-10 16:15:00,70.5,59.5,27.79,ENE,68,3.6,3.6,68,0.00,,---,0.00,VWS V14.00,2013-05-10 20:15:00,
2013-05-10 16:16:00,70.5,59.5,27.79,NNW,338,3.1,3.8,68,0.00,,---,0.00,VWS V14.00,2013-05-10 20:16:00,
2013-05-10 16:17:00,70.3,59.3,27.79,NNW,338,2.9,2.9,68,0.00,,---,0.00,VWS V14.00,2013-05-10 20:17:00,
2013-05-10 16:19:00,70.2,59.1,27.79,NE,45,2.5,2.5,68,0.00,,---,0.00,VWS V14.00,2013-05-10 20:19:00,
2013-05-10 16:20:00,70.2,59.5,27.79,WNW,292,2.0,2.2,69,0.00,,---,0.00,VWS V14.00,2013-05-10 20:20:00,
2013-05-10 16:22:00,70.0,59.3,27.79,WSW,248,2.0,2.0,69,0.00,,---,0.00,VWS V14.00,2013-05-10 20:22:00,
2013-05-10 16:24:00,70.0,59.3,27.79,North,0,2.5,2.5,69,0.00,,---,0.00,VWS V14.00,2013-05-10 20:24:00,
2013-05-10 16:25:00,70.0,59.3,27.79,NE,45,2.5,2.5,69,0.00,,---,0.00,VWS V14.00,2013-05-10 20:25:00,
2013-05-10 16:27:00,69.6,59.0,27.79,NW,315,2.5,2.5,69,0.00,,---,0.00,VWS V14.00,2013-05-10 20:27:00,
2013-05-10 16:28:00,69.6,59.0,27.79,WNW,292,1.6,1.6,69,0.00,,---,0.00,VWS V14.00,2013-05-10 20:28:00,
2013-05-10 16:30:00,69.6,59.4,27.79,WNW,292,1.3,1.3,70,0.00,,---,0.00,VWS V14.00,2013-05-10 20:30:00,
2013-05-10 16:32:00,69.6,59.4,27.79,NNW,338,1.3,1.3,70,0.00,,---,0.00,VWS V14.00,2013-05-10 20:32:00,
2013-05-10 16:33:00,69.6,59.4,27.79,NNE,22,2.7,2.7,70,0.00,,---,0.00,VWS V14.00,2013-05-10 20:33:00,
2013-05-10 16:35:00,69.4,59.2,27.79,West,270,2.0,2.5,70,0.00,,---,0.00,VWS V14.00,2013-05-10 20:35:00,
2013-05-10 16:36:00,69.4,59.2,27.79,West,270,2.0,2.5,70,0.00,,---,0.00,VWS V14.00,2013-05-10 20:36:00,
2013-05-10 16:37:00,69.3,59.1,27.79,North,0,2.5,2.5,70,0.00,,---,0.00,VWS V14.00,2013-05-10 20:37:00,
2013-05-10 16:38:00,69.3,59.1,27.79,North,0,2.5,2.5,70,0.00,,---,0.00,VWS V14.00,2013-05-10 20:38:00,
2013-05-10 16:40:00,69.1,58.9,27.79,North,0,3.4,3.4,70,0.00,,---,0.00,VWS V14.00,2013-05-10 20:40:00,
2013-05-10 16:41:00,69.1,58.9,27.79,NNW,338,1.6,1.6,70,0.00,,---,0.00,VWS V14.00,2013-05-10 20:41:00,
2013-05-10 16:42:00,69.1,59.3,27.79,NNE,22,2.0,2.0,71,0.00,,---,0.00,VWS V14.00,2013-05-10 20:42:00,
2013-05-10 16:43:00,69.1,59.3,27.79,NNW,338,1.6,1.6,71,0.00,,---,0.00,VWS V14.00,2013-05-10 20:43:00,
2013-05-10 16:45:00,69.3,59.5,27.79,NNE,22,0.0,1.3,71,0.00,,---,0.00,VWS V14.00,2013-05-10 20:45:00,
2013-05-10 16:46:00,69.3,59.5,27.79,NNE,22,0.0,0.0,71,0.00,,---,0.00,VWS V14.00,2013-05-10 20:46:00,
2013-05-10 16:48:00,69.3,59.5,27.79,WNW,292,1.6,2.5,71,0.00,,---,0.00,VWS V14.00,2013-05-10 20:48:00,
2013-05-10 16:51:00,69.3,59.5,27.79,ESE,112,1.1,2.7,71,0.00,,---,0.00,VWS V14.00,2013-05-10 20:51:00,
2013-05-10 16:53:00,69.6,59.8,27.79,NNE,22,2.5,2.5,71,0.00,,---,0.00,VWS V14.00,2013-05-10 20:53:00,
2013-05-10 16:55:00,69.6,59.8,27.79,NNW,338,2.0,2.0,71,0.00,,---,0.00,VWS V14.00,2013-05-10 20:55:00,
2013-05-10 16:56:00,69.6,59.8,27.79,WNW,292,1.3,1.3,71,0.00,,---,0.00,VWS V14.00,2013-05-10 20:56:00,
2013-05-10 16:58:00,70.2,60.3,27.79,NNE,22,2.0,2.0,71,0.00,,---,0.00,VWS V14.00,2013-05-10 20:58:00,
2013-05-10 17:00:00,70.3,60.5,27.79,WNW,292,1.3,1.3,71,0.00,,---,0.00,VWS V14.00,2013-05-10 21:00:00,
2013-05-10 17:01:00,70.3,60.5,27.79,NW,315,2.2,2.2,71,0.00,,---,0.00,VWS V14.00,2013-05-10 21:01:00,
2013-05-10 17:03:00,70.5,60.3,27.79,North,0,2.0,2.0,70,0.00,,---,0.00,VWS V14.00,2013-05-10 21:03:00,
2013-05-10 17:05:00,70.7,60.5,27.79,WSW,248,2.5,2.5,70,0.00,,---,0.00,VWS V14.00,2013-05-10 21:05:00,
2013-05-10 17:06:00,70.7,60.5,27.79,WSW,248,2.5,2.5,70,0.00,,---,0.00,VWS V14.00,2013-05-10 21:06:00,
2013-05-10 17:08:00,70.9,60.6,27.79,East,90,2.0,3.4,70,0.00,,---,0.00,VWS V14.00,2013-05-10 21:08:00,
2013-05-10 17:10:00,71.1,60.8,27.79,North,0,2.0,2.0,70,0.00,,---,0.00,VWS V14.00,2013-05-10 21:10:00,
2013-05-10 17:11:00,71.1,60.8,27.79,NNW,338,2.9,2.9,70,0.00,,---,0.00,VWS V14.00,2013-05-10 21:11:00,
2013-05-10 17:12:00,71.1,60.8,27.79,NW,315,1.1,1.1,70,0.00,,---,0.00,VWS V14.00,2013-05-10 21:12:00,
2013-05-10 17:13:00,71.2,61.0,27.79,North,0,0.0,0.0,70,0.00,,---,0.00,VWS V14.00,2013-05-10 21:13:00,
2013-05-10 17:15:00,71.2,61.0,27.79,North,0,2.2,2.2,70,0.00,,---,0.00,VWS V14.00,2013-05-10 21:15:00,
2013-05-10 17:16:00,71.2,61.0,27.79,NNE,22,2.0,3.1,70,0.00,,---,0.00,VWS V14.00,2013-05-10 21:16:00,
2013-05-10 17:17:00,71.2,61.0,27.79,NNE,22,2.0,2.0,70,0.00,,---,0.00,VWS V14.00,2013-05-10 21:17:00,
2013-05-10 17:18:00,71.2,61.0,27.79,NNW,338,2.7,3.4,70,0.00,,---,0.00,VWS V14.00,2013-05-10 21:18:00,
2013-05-10 17:19:00,71.2,61.0,27.79,WNW,292,1.3,1.3,70,0.00,,---,0.00,VWS V14.00,2013-05-10 21:19:00,
2013-05-10 17:20:00,71.4,61.1,27.79,NNE,22,2.2,2.2,70,0.00,,---,0.00,VWS V14.00,2013-05-10 21:20:00,
2013-05-10 17:21:00,71.4,61.1,27.79,NNE,22,2.5,2.5,70,0.00,,---,0.00,VWS V14.00,2013-05-10 21:21:00,
2013-05-10 17:22:00,71.4,61.5,27.79,West,270,1.1,2.5,71,0.00,,---,0.00,VWS V14.00,2013-05-10 21:22:00,
2013-05-10 17:23:00,71.4,61.5,27.79,North,0,0.0,1.1,71,0.00,,---,0.00,VWS V14.00,2013-05-10 21:23:00,
2013-05-10 17:24:00,71.4,61.1,27.79,NNE,22,1.1,1.1,70,0.00,,---,0.00,VWS V14.00,2013-05-10 21:24:00,
2013-05-10 17:25:00,71.4,61.1,27.79,North,0,1.6,1.6,70,0.00,,---,0.00,VWS V14.00,2013-05-10 21:25:00,
2013-05-10 17:26:00,71.4,61.1,27.79,NNW,338,2.5,2.5,70,0.00,,---,0.00,VWS V14.00,2013-05-10 21:26:00,
2013-05-10 17:27:00,71.2,61.0,27.79,NNW,338,2.0,2.0,70,0.00,,---,0.00,VWS V14.00,2013-05-10 21:27:00,
2013-05-10 17:28:00,71.2,61.0,27.79,NNW,338,1.3,1.3,70,0.00,,---,0.00,VWS V14.00,2013-05-10 21:28:00,
2013-05-10 17:29:00,71.1,60.8,27.79,NNW,338,1.3,1.3,70,0.00,,---,0.00,VWS V14.00,2013-05-10 21:29:00,
2013-05-10 17:30:00,71.1,60.8,27.79,NNE,22,0.0,1.3,70,0.00,,---,0.00,VWS V14.00,2013-05-10 21:30:00,
2013-05-10 17:31:00,71.1,60.8,27.79,WNW,292,1.1,1.1,70,0.00,,---,0.00,VWS V14.00,2013-05-10 21:31:00,
2013-05-10 17:32:00,70.9,61.0,27.79,NNW,338,0.0,1.1,71,0.00,,---,0.00,VWS V14.00,2013-05-10 21:32:00,
2013-05-10 17:33:00,70.9,61.0,27.79,NE,45,1.6,1.6,71,0.00,,---,0.00,VWS V14.00,2013-05-10 21:33:00,
2013-05-10 17:34:00,70.9,61.0,27.79,NE,45,1.6,1.6,71,0.00,,---,0.00,VWS V14.00,2013-05-10 21:34:00,
2013-05-10 17:36:00,70.7,60.5,27.79,NNW,338,1.3,1.3,70,0.00,,---,0.00,VWS V14.00,2013-05-10 21:36:00,
2013-05-10 17:37:00,70.7,60.8,27.79,NNW,338,0.0,0.0,71,0.00,,---,0.00,VWS V14.00,2013-05-10 21:37:00,
2013-05-10 17:38:00,70.5,60.7,27.79,NNE,22,1.3,1.3,71,0.00,,---,0.00,VWS V14.00,2013-05-10 21:38:00,
2013-05-10 17:39:00,70.5,60.7,27.79,North,0,1.3,1.3,71,0.00,,---,0.00,VWS V14.00,2013-05-10 21:39:00,
2013-05-10 17:41:00,70.5,60.7,27.79,NNW,338,1.3,1.3,71,0.00,,---,0.00,VWS V14.00,2013-05-10 21:41:00,
2013-05-10 17:42:00,70.5,60.7,27.79,NNW,338,1.3,1.3,71,0.00,,---,0.00,VWS V14.00,2013-05-10 21:42:00,
2013-05-10 17:43:00,70.5,60.7,27.79,SSW,202,2.5,2.5,71,0.00,,---,0.00,VWS V14.00,2013-05-10 21:43:00,
2013-05-10 17:44:00,70.5,60.7,27.79,NNW,338,1.6,1.6,71,0.00,,---,0.00,VWS V14.00,2013-05-10 21:44:00,
2013-05-10 17:46:00,70.3,60.5,27.79,North,0,0.0,0.0,71,0.00,,---,0.00,VWS V14.00,2013-05-10 21:46:00,
2013-05-10 17:47:00,70.3,60.5,27.79,North,0,0.0,0.0,71,0.00,,---,0.00,VWS V14.00,2013-05-10 21:47:00,
2013-05-10 17:48:00,70.3,60.5,27.79,ENE,68,0.0,0.0,71,0.00,,---,0.00,VWS V14.00,2013-05-10 21:48:00,
2013-05-10 17:49:00,70.3,60.5,27.79,ENE,68,0.0,0.0,71,0.00,,---,0.00,VWS V14.00,2013-05-10 21:49:00,
2013-05-10 17:51:00,70.3,60.9,27.79,NNE,22,0.0,1.3,72,0.00,,---,0.00,VWS V14.00,2013-05-10 21:51:00,
2013-05-10 17:52:00,70.3,60.9,27.79,NNE,22,0.0,0.0,72,0.00,,---,0.00,VWS V14.00,2013-05-10 21:52:00,
2013-05-10 17:53:00,70.3,60.9,27.79,NE,45,0.9,1.6,72,0.00,,---,0.00,VWS V14.00,2013-05-10 21:53:00,
2013-05-10 17:54:00,70.2,60.7,27.79,NE,45,0.9,0.9,72,0.00,,---,0.00,VWS V14.00,2013-05-10 21:54:00,
2013-05-10 17:56:00,70.2,60.7,27.79,NNW,338,2.0,2.0,72,0.00,,---,0.00,VWS V14.00,2013-05-10 21:56:00,
2013-05-10 17:57:00,70.2,60.7,27.79,NNW,338,2.0,2.0,72,0.00,,---,0.00,VWS V14.00,2013-05-10 21:57:00,
2013-05-10 17:58:00,70.2,60.7,27.79,WNW,292,0.0,0.0,72,0.00,,---,0.00,VWS V14.00,2013-05-10 21:58:00,
2013-05-10 18:03:00,70.0,60.2,27.79,NNE,22,2.5,2.5,71,0.00,,---,0.00,VWS V14.00,2013-05-10 22:03:00,
2013-05-10 18:08:00,70.0,60.2,27.79,WNW,292,1.1,1.6,71,0.00,,---,0.00,VWS V14.00,2013-05-10 22:08:00,
2013-05-10 18:09:00,70.0,60.2,27.79,NW,315,0.0,1.6,71,0.00,,---,0.00,VWS V14.00,2013-05-10 22:09:00,
2013-05-10 18:13:00,69.4,59.6,27.79,WSW,248,2.0,2.0,71,0.00,,---,0.00,VWS V14.00,2013-05-10 22:13:00,
2013-05-10 18:14:00,69.4,59.6,27.79,NW,315,2.5,2.5,71,0.00,,---,0.00,VWS V14.00,2013-05-10 22:14:00,
2013-05-10 18:18:00,69.1,59.3,27.79,NNE,22,3.1,3.1,71,0.00,,---,0.00,VWS V14.00,2013-05-10 22:18:00,
2013-05-10 18:19:00,69.3,59.5,27.79,North,0,2.7,3.1,71,0.00,,---,0.00,VWS V14.00,2013-05-10 22:19:00,
2013-05-10 18:23:00,69.1,59.3,27.79,NE,45,2.2,2.2,71,0.00,,---,0.00,VWS V14.00,2013-05-10 22:23:00,
2013-05-10 18:24:00,69.3,59.5,27.79,NE,45,0.0,2.2,71,0.00,,---,0.00,VWS V14.00,2013-05-10 22:24:00,
2013-05-10 18:25:00,69.3,59.5,27.79,North,0,0.0,0.0,71,0.00,,---,0.00,VWS V14.00,2013-05-10 22:25:00,
2013-05-10 18:28:00,69.1,59.7,27.79,WNW,292,2.9,2.9,72,0.00,,---,0.00,VWS V14.00,2013-05-10 22:28:00,
2013-05-10 18:29:00,69.1,59.7,27.79,North,0,1.1,1.1,72,0.00,,---,0.00,VWS V14.00,2013-05-10 22:29:00,
2013-05-10 18:30:00,69.1,59.7,27.79,SSW,202,3.1,3.1,72,0.00,,---,0.00,VWS V14.00,2013-05-10 22:30:00,
2013-05-10 18:34:00,68.9,59.5,27.79,North,0,1.3,1.3,72,0.00,,---,0.00,VWS V14.00,2013-05-10 22:34:00,
2013-05-10 18:35:00,68.9,59.5,27.79,WNW,292,0.9,0.9,72,0.00,,---,0.00,VWS V14.00,2013-05-10 22:35:00,
2013-05-10 18:39:00,68.9,59.5,27.79,North,0,1.3,1.3,72,0.00,,---,0.00,VWS V14.00,2013-05-10 22:39:00,
2013-05-10 18:40:00,68.9,59.5,27.79,ENE,68,0.0,0.0,72,0.00,,---,0.00,VWS V14.00,2013-05-10 22:40:00,
2013-05-10 18:44:00,68.9,59.5,27.76,West,270,1.6,1.6,72,0.00,,---,0.00,VWS V14.00,2013-05-10 22:44:00,
2013-05-10 18:45:00,68.9,59.5,27.76,North,0,3.1,3.1,72,0.00,,---,0.00,VWS V14.00,2013-05-10 22:45:00,
2013-05-10 18:49:00,69.1,59.7,27.76,SE,135,0.0,0.0,72,0.00,,---,0.00,VWS V14.00,2013-05-10 22:49:00,
2013-05-10 18:50:00,69.1,59.7,27.76,ENE,68,3.4,3.4,72,0.00,,---,0.00,VWS V14.00,2013-05-10 22:50:00,
2013-05-10 18:51:00,69.1,59.7,27.76,SSW,202,0.0,0.0,72,0.00,,---,0.00,VWS V14.00,2013-05-10 22:51:00,
2013-05-10 18:54:00,69.4,60.0,27.76,NW,315,2.5,2.9,72,0.00,,---,0.00,VWS V14.00,2013-05-10 22:54:00,
2013-05-10 18:55:00,69.4,60.0,27.76,East,90,2.9,2.9,72,0.00,,---,0.00,VWS V14.00,2013-05-10 22:55:00,
2013-05-10 18:56:00,69.4,60.0,27.76,East,90,2.9,2.9,72,0.00,,---,0.00,VWS V14.00,2013-05-10 22:56:00,
2013-05-10 18:59:00,69.3,59.5,27.76,ESE,112,0.9,1.1,71,0.00,,---,0.00,VWS V14.00,2013-05-10 22:59:00,
2013-05-10 19:00:00,69.3,59.5,27.76,WNW,292,3.4,3.4,71,0.00,,---,0.00,VWS V14.00,2013-05-10 23:00:00,
2013-05-10 19:01:00,69.3,59.5,27.76,NE,45,2.7,3.4,71,0.00,,---,0.00,VWS V14.00,2013-05-10 23:01:00,
2013-05-10 19:02:00,69.3,59.5,27.76,NE,45,3.4,3.4,71,0.00,,---,0.00,VWS V14.00,2013-05-10 23:02:00,
2013-05-10 19:05:00,69.1,59.3,27.76,North,0,3.4,3.4,71,0.00,,---,0.00,VWS V14.00,2013-05-10 23:05:00,
2013-05-10 19:06:00,68.9,58.7,27.76,NNW,338,3.1,3.1,70,0.00,,---,0.00,VWS V14.00,2013-05-10 23:06:00,
2013-05-10 19:08:00,68.9,58.7,27.76,NW,315,0.9,0.9,70,0.00,,---,0.00,VWS V14.00,2013-05-10 23:08:00,
2013-05-10 19:10:00,68.9,59.1,27.76,NE,45,2.7,2.7,71,0.00,,---,0.00,VWS V14.00,2013-05-10 23:10:00,
2013-05-10 19:11:00,68.7,59.0,27.76,ENE,68,2.5,2.5,71,0.00,,---,0.00,VWS V14.00,2013-05-10 23:11:00,
2013-05-10 19:13:00,68.7,59.0,27.76,NNW,338,2.0,2.0,71,0.00,,---,0.00,VWS V14.00,2013-05-10 23:13:00,
2013-05-10 19:15:00,68.7,59.0,27.76,East,90,2.5,2.5,71,0.00,,---,0.00,VWS V14.00,2013-05-10 23:15:00,
2013-05-10 19:18:00,68.5,58.8,27.76,ENE,68,2.5,2.5,71,0.00,,---,0.00,VWS V14.00,2013-05-10 23:18:00,
2013-05-10 19:21:00,68.5,58.8,27.76,ENE,68,1.1,1.3,71,0.00,,---,0.00,VWS V14.00,2013-05-10 23:21:00,
2013-05-10 19:23:00,68.4,58.6,27.76,East,90,0.0,0.0,71,0.00,,---,0.00,VWS V14.00,2013-05-10 23:23:00,
2013-05-10 19:26:00,68.2,58.4,27.76,West,270,1.3,1.3,71,0.00,,---,0.00,VWS V14.00,2013-05-10 23:26:00,
2013-05-10 19:28:00,68.2,58.4,27.76,North,0,3.1,3.1,71,0.00,,---,0.00,VWS V14.00,2013-05-10 23:28:00,
2013-05-10 19:31:00,68.0,58.3,27.76,West,270,1.6,1.6,71,0.00,,---,0.00,VWS V14.00,2013-05-10 23:31:00,
2013-05-10 19:32:00,68.0,58.3,27.76,NE,45,0.9,0.9,71,0.00,,---,0.00,VWS V14.00,2013-05-10 23:32:00,
2013-05-10 19:33:00,68.0,58.3,27.76,ENE,68,0.0,0.0,71,0.00,,---,0.00,VWS V14.00,2013-05-10 23:33:00,
2013-05-10 19:34:00,68.0,58.3,27.76,ENE,68,0.0,0.0,71,0.00,,---,0.00,VWS V14.00,2013-05-10 23:34:00,
2013-05-10 19:36:00,68.0,58.7,27.76,ENE,68,2.5,2.5,72,0.00,,---,0.00,VWS V14.00,2013-05-10 23:36:00,
2013-05-10 19:37:00,67.8,58.5,27.76,NNW,338,1.3,1.3,72,0.00,,---,0.00,VWS V14.00,2013-05-10 23:37:00,
2013-05-10 19:38:00,67.8,58.5,27.76,ENE,68,1.3,1.3,72,0.00,,---,0.00,VWS V14.00,2013-05-10 23:38:00,
2013-05-10 19:39:00,67.8,58.5,27.76,ENE,68,1.3,1.3,72,0.00,,---,0.00,VWS V14.00,2013-05-10 23:39:00,
2013-05-10 19:41:00,67.8,58.9,27.76,NE,45,2.5,2.5,73,0.00,,---,0.00,VWS V14.00,2013-05-10 23:41:00,
2013-05-10 19:42:00,67.8,58.9,27.76,NE,45,2.5,2.5,73,0.00,,---,0.00,VWS V14.00,2013-05-10 23:42:00,
2013-05-10 19:44:00,67.8,58.9,27.76,NNE,22,2.9,2.9,73,0.00,,---,0.00,VWS V14.00,2013-05-10 23:44:00,
2013-05-10 19:47:00,67.8,58.9,27.76,NE,45,2.0,2.0,73,0.00,,---,0.00,VWS V14.00,2013-05-10 23:47:00,
2013-05-10 19:48:00,67.8,58.9,27.76,NNW,338,2.0,2.0,73,0.00,,---,0.00,VWS V14.00,2013-05-10 23:48:00,
2013-05-10 19:49:00,67.6,58.7,27.76,North,0,2.5,2.5,73,0.00,,---,0.00,VWS V14.00,2013-05-10 23:49:00,
2013-05-10 19:52:00,67.6,58.3,27.76,ENE,68,0.0,0.0,72,0.00,,---,0.00,VWS V14.00,2013-05-10 23:52:00,
2013-05-10 19:53:00,67.6,58.3,27.76,WNW,292,1.1,1.1,72,0.00,,---,0.00,VWS V14.00,2013-05-10 23:53:00,
2013-05-10 19:54:00,67.6,58.3,27.76,North,0,1.6,2.7,72,0.00,,---,0.00,VWS V14.00,2013-05-10 23:54:00,
2013-05-10 19:55:00,67.6,58.3,27.76,North,0,2.5,2.5,72,0.00,,---,0.00,VWS V14.00,2013-05-10 23:55:00,
2013-05-10 19:58:00,67.5,58.1,27.76,North,0,0.0,0.0,72,0.00,,---,0.00,VWS V14.00,2013-05-10 23:58:00,
2013-05-10 20:00:00,67.5,58.1,27.76,North,0,0.0,0.0,72,0.00,,---,0.00,VWS V14.00,2013-05-11 00:00:00,
2013-05-10 20:03:00,67.3,58.0,27.76,SW,225,0.0,0.0,72,0.00,,---,0.00,VWS V14.00,2013-05-11 00:03:00,
2013-05-10 20:04:00,67.3,58.0,27.76,NW,315,0.0,0.0,72,0.00,,---,0.00,VWS V14.00,2013-05-11 00:04:00,
2013-05-10 20:05:00,67.3,58.0,27.76,NW,315,0.0,0.0,72,0.00,,---,0.00,VWS V14.00,2013-05-11 00:05:00,
2013-05-10 20:06:00,67.3,58.0,27.76,North,0,1.3,1.3,72,0.00,,---,0.00,VWS V14.00,2013-05-11 00:06:00,
2013-05-10 20:08:00,67.3,58.3,27.76,NE,45,1.6,1.6,73,0.00,,---,0.00,VWS V14.00,2013-05-11 00:08:00,
2013-05-10 20:09:00,67.3,58.3,27.76,North,0,0.0,1.6,73,0.00,,---,0.00,VWS V14.00,2013-05-11 00:09:00,
2013-05-10 20:10:00,67.3,58.3,27.76,North,0,0.0,0.0,73,0.00,,---,0.00,VWS V14.00,2013-05-11 00:10:00,
2013-05-10 20:11:00,67.1,58.2,27.76,ENE,68,0.0,0.0,73,0.00,,---,0.00,VWS V14.00,2013-05-11 00:11:00,
2013-05-10 20:13:00,67.1,58.2,27.79,WNW,292,0.9,0.9,73,0.00,,---,0.00,VWS V14.00,2013-05-11 00:13:00,
2013-05-10 20:14:00,67.1,58.2,27.79,ENE,68,0.0,0.0,73,0.00,,---,0.00,VWS V14.00,2013-05-11 00:14:00,
2013-05-10 20:16:00,66.9,58.4,27.79,WNW,292,0.0,0.0,74,0.00,,---,0.00,VWS V14.00,2013-05-11 00:16:00,
2013-05-10 20:18:00,66.9,58.4,27.79,North,0,0.0,0.0,74,0.00,,---,0.00,VWS V14.00,2013-05-11 00:18:00,
2013-05-10 20:19:00,66.9,58.4,27.79,ENE,68,0.0,0.0,74,0.00,,---,0.00,VWS V14.00,2013-05-11 00:19:00,
2013-05-10 20:21:00,66.9,58.4,27.79,NW,315,0.0,0.0,74,0.00,,---,0.00,VWS V14.00,2013-05-11 00:21:00,
2013-05-10 20:22:00,66.9,58.4,27.79,North,0,0.9,0.9,74,0.00,,---,0.00,VWS V14.00,2013-05-11 00:22:00,
2013-05-10 20:23:00,66.7,58.2,27.79,North,0,0.0,0.0,74,0.00,,---,0.00,VWS V14.00,2013-05-11 00:23:00,
2013-05-10 20:24:00,66.7,58.6,27.79,North,0,0.0,0.0,75,0.00,,---,0.00,VWS V14.00,2013-05-11 00:24:00,
2013-05-10 20:26:00,66.6,58.4,27.79,NNW,338,2.0,2.5,75,0.00,,---,0.00,VWS V14.00,2013-05-11 00:26:00,
2013-05-10 20:27:00,66.6,58.4,27.79,NNW,338,2.0,2.0,75,0.00,,---,0.00,VWS V14.00,2013-05-11 00:27:00,
2013-05-10 20:28:00,66.6,58.4,27.79,NNE,22,0.0,0.0,75,0.00,,---,0.00,VWS V14.00,2013-05-11 00:28:00,
2013-05-10 20:29:00,66.6,58.4,27.79,NNE,22,0.0,0.0,75,0.00,,---,0.00,VWS V14.00,2013-05-11 00:29:00,
2013-05-10 20:31:00,66.6,58.8,27.79,NE,45,0.0,0.0,76,0.00,,---,0.00,VWS V14.00,2013-05-11 00:31:00,
2013-05-10 20:32:00,66.6,58.8,27.79,NW,315,0.0,0.0,76,0.00,,---,0.00,VWS V14.00,2013-05-11 00:32:00,
2013-05-10 20:34:00,66.4,58.6,27.79,NNE,22,1.3,1.6,76,0.00,,---,0.00,VWS V14.00,2013-05-11 00:34:00,
2013-05-10 20:35:00,66.4,58.6,27.79,NNE,22,1.3,1.3,76,0.00,,---,0.00,VWS V14.00,2013-05-11 00:35:00,
2013-05-10 20:37:00,66.4,58.6,27.79,North,0,0.0,0.0,76,0.00,,---,0.00,VWS V14.00,2013-05-11 00:37:00,
2013-05-10 20:39:00,66.4,58.6,27.79,NE,45,0.0,0.0,76,0.00,,---,0.00,VWS V14.00,2013-05-11 00:39:00,
2013-05-10 20:40:00,66.4,59.0,27.79,ENE,68,0.0,0.0,77,0.00,,---,0.00,VWS V14.00,2013-05-11 00:40:00,
2013-05-10 20:42:00,66.4,59.0,27.79,NNW,338,0.0,0.0,77,0.00,,---,0.00,VWS V14.00,2013-05-11 00:42:00,
2013-05-10 20:44:00,66.4,59.0,27.79,NNW,338,0.0,0.0,77,0.00,,---,0.00,VWS V14.00,2013-05-11 00:44:00,
2013-05-10 20:45:00,66.4,59.0,27.79,NNW,338,0.0,0.0,77,0.00,,---,0.00,VWS V14.00,2013-05-11 00:45:00,
2013-05-10 20:47:00,66.2,58.8,27.79,North,0,0.0,0.0,77,0.00,,---,0.00,VWS V14.00,2013-05-11 00:47:00,
2013-05-10 20:49:00,66.2,59.2,27.79,North,0,0.0,0.0,78,0.00,,---,0.00,VWS V14.00,2013-05-11 00:49:00,
2013-05-10 20:50:00,66.2,59.2,27.79,North,0,0.0,0.0,78,0.00,,---,0.00,VWS V14.00,2013-05-11 00:50:00,
2013-05-10 20:52:00,66.0,59.0,27.79,SSE,158,1.6,1.6,78,0.00,,---,0.00,VWS V14.00,2013-05-11 00:52:00,
2013-05-10 20:55:00,66.0,59.0,27.79,NE,45,0.0,0.0,78,0.00,,---,0.00,VWS V14.00,2013-05-11 00:55:00,
2013-05-10 20:56:00,66.0,59.0,27.79,NNE,22,0.0,0.0,78,0.00,,---,0.00,VWS V14.00,2013-05-11 00:56:00,
2013-05-10 20:57:00,66.0,59.0,27.79,North,0,2.0,2.0,78,0.00,,---,0.00,VWS V14.00,2013-05-11 00:57:00,
2013-05-10 20:58:00,66.0,59.0,27.79,North,0,2.0,2.0,78,0.00,,---,0.00,VWS V14.00,2013-05-11 00:58:00,
2013-05-10 21:00:00,66.0,59.0,27.79,NNE,22,0.0,0.0,78,0.00,,---,0.00,VWS V14.00,2013-05-11 01:00:00,
2013-05-10 21:01:00,65.8,58.8,27.79,North,0,3.1,3.1,78,0.00,,---,0.00,VWS V14.00,2013-05-11 01:01:00,
2013-05-10 21:02:00,65.8,58.8,27.79,NNW,338,0.0,3.1,78,0.00,,---,0.00,VWS V14.00,2013-05-11 01:02:00,
2013-05-10 21:03:00,65.8,58.8,27.79,SSE,158,1.3,1.3,78,0.00,,---,0.00,VWS V14.00,2013-05-11 01:03:00,
2013-05-10 21:05:00,65.8,58.8,27.79,North,0,2.0,2.0,78,0.00,,---,0.00,VWS V14.00,2013-05-11 01:05:00,
2013-05-10 21:06:00,65.8,58.8,27.79,NW,315,1.3,1.3,78,0.00,,---,0.00,VWS V14.00,2013-05-11 01:06:00,
2013-05-10 21:08:00,65.8,58.8,27.79,NE,45,0.9,0.9,78,0.00,,---,0.00,VWS V14.00,2013-05-11 01:08:00,
2013-05-10 21:10:00,65.8,58.4,27.79,NNW,338,1.6,1.6,77,0.00,,---,0.00,VWS V14.00,2013-05-11 01:10:00,
2013-05-10 21:11:00,65.8,58.4,27.79,East,90,0.0,0.0,77,0.00,,---,0.00,VWS V14.00,2013-05-11 01:11:00,
2013-05-10 21:13:00,65.8,58.4,27.79,NE,45,1.6,2.0,77,0.00,,---,0.00,VWS V14.00,2013-05-11 01:13:00,
2013-05-10 21:14:00,65.8,58.4,27.79,NE,45,2.5,2.5,77,0.00,,---,0.00,VWS V14.00,2013-05-11 01:14:00,
2013-05-10 21:16:00,65.7,58.3,27.79,NW,315,2.5,2.5,77,0.00,,---,0.00,VWS V14.00,2013-05-11 01:16:00,
2013-05-10 21:18:00,65.7,58.3,27.79,NNE,22,0.0,1.3,77,0.00,,---,0.00,VWS V14.00,2013-05-11 01:18:00,
2013-05-10 21:19:00,65.7,58.3,27.79,NNW,338,1.3,1.3,77,0.00,,---,0.00,VWS V14.00,2013-05-11 01:19:00,
2013-05-10 21:21:00,65.7,58.3,27.79,North,0,0.0,0.0,77,0.00,,---,0.00,VWS V14.00,2013-05-11 01:21:00,
2013-05-10 21:22:00,65.7,58.3,27.79,NNE,22,0.0,0.0,77,0.00,,---,0.00,VWS V14.00,2013-05-11 01:22:00,
2013-05-10 21:24:00,65.7,58.3,27.79,NW,315,1.3,1.3,77,0.00,,---,0.00,VWS V14.00,2013-05-11 01:24:00,
2013-05-10 21:26:00,65.7,58.3,27.79,NE,45,0.0,0.0,77,0.00,,---,0.00,VWS V14.00,2013-05-11 01:26:00,
2013-05-10 21:27:00,65.7,58.3,27.79,ENE,68,0.0,0.0,77,0.00,,---,0.00,VWS V14.00,2013-05-11 01:27:00,
2013-05-10 21:28:00,65.7,58.3,27.79,NE,45,1.3,1.3,77,0.00,,---,0.00,VWS V14.00,2013-05-11 01:28:00,
2013-05-10 21:29:00,65.7,58.3,27.79,NNW,338,0.0,0.0,77,0.00,,---,0.00,VWS V14.00,2013-05-11 01:29:00,
2013-05-10 21:30:00,65.7,58.3,27.79,North,0,0.0,0.0,77,0.00,,---,0.00,VWS V14.00,2013-05-11 01:30:00,
2013-05-10 21:32:00,65.7,58.3,27.79,NNE,22,0.0,0.0,77,0.00,,---,0.00,VWS V14.00,2013-05-11 01:32:00,
2013-05-10 21:33:00,65.7,58.3,27.79,North,0,0.0,0.0,77,0.00,,---,0.00,VWS V14.00,2013-05-11 01:33:00,
2013-05-10 21:34:00,65.5,58.1,27.79,North,0,0.0,0.0,77,0.00,,---,0.00,VWS V14.00,2013-05-11 01:34:00,
2013-05-10 21:37:00,65.5,58.1,27.79,NNW,338,1.3,1.3,77,0.00,,---,0.00,VWS V14.00,2013-05-11 01:37:00,
2013-05-10 21:38:00,65.5,58.1,27.79,NNW,338,0.0,0.0,77,0.00,,---,0.00,VWS V14.00,2013-05-11 01:38:00,
2013-05-10 21:39:00,65.5,58.1,27.79,NNW,338,0.0,0.0,77,0.00,,---,0.00,VWS V14.00,2013-05-11 01:39:00,
2013-05-10 21:42:00,65.5,58.1,27.79,WNW,292,2.0,2.0,77,0.00,,---,0.00,VWS V14.00,2013-05-11 01:42:00,
2013-05-10 21:43:00,65.5,58.1,27.79,WNW,292,0.0,0.0,77,0.00,,---,0.00,VWS V14.00,2013-05-11 01:43:00,
2013-05-10 21:44:00,65.3,57.9,27.79,WNW,292,0.0,0.0,77,0.00,,---,0.00,VWS V14.00,2013-05-11 01:44:00,
2013-05-10 21:47:00,65.3,58.3,27.79,WNW,292,0.0,0.0,78,0.00,,---,0.00,VWS V14.00,2013-05-11 01:47:00,
2013-05-10 21:48:00,65.3,58.3,27.79,WNW,292,0.0,0.0,78,0.00,,---,0.00,VWS V14.00,2013-05-11 01:48:00,
2013-05-10 21:49:00,65.3,58.3,27.79,WNW,292,0.0,0.0,78,0.00,,---,0.00,VWS V14.00,2013-05-11 01:49:00,
2013-05-10 21:53:00,65.1,58.1,27.79,SE,135,0.0,0.0,78,0.00,,---,0.00,VWS V14.00,2013-05-11 01:53:00,
2013-05-10 21:54:00,65.1,58.1,27.79,West,270,0.0,0.0,78,0.00,,---,0.00,VWS V14.00,2013-05-11 01:54:00,
2013-05-10 21:55:00,64.9,58.3,27.79,West,270,0.0,0.0,79,0.00,,---,0.00,VWS V14.00,2013-05-11 01:55:00,
2013-05-10 21:58:00,65.1,58.5,27.79,WSW,248,0.0,0.0,79,0.00,,---,0.00,VWS V14.00,2013-05-11 01:58:00,
2013-05-10 22:00:00,64.9,58.3,27.79,WSW,248,0.0,0.0,79,0.00,,---,0.00,VWS V14.00,2013-05-11 02:00:00,
2013-05-10 22:03:00,64.9,58.3,27.79,SSW,202,0.0,0.0,79,0.00,,---,0.00,VWS V14.00,2013-05-11 02:03:00,
2013-05-10 22:05:00,64.8,58.1,27.79,SSW,202,0.0,0.0,79,0.00,,---,0.00,VWS V14.00,2013-05-11 02:05:00,
2013-05-10 22:08:00,64.8,58.1,27.79,SSW,202,0.0,0.0,79,0.00,,---,0.00,VWS V14.00,2013-05-11 02:08:00,
2013-05-10 22:09:00,64.8,58.1,27.79,SSW,202,0.0,0.0,79,0.00,,---,0.00,VWS V14.00,2013-05-11 02:09:00,
2013-05-10 22:10:00,64.8,58.1,27.79,WSW,248,0.0,0.0,79,0.00,,---,0.00,VWS V14.00,2013-05-11 02:10:00,
2013-05-10 22:11:00,64.8,58.1,27.79,WSW,248,0.0,0.0,79,0.00,,---,0.00,VWS V14.00,2013-05-11 02:11:00,
2013-05-10 22:13:00,64.6,57.9,27.79,WSW,248,0.0,0.0,79,0.00,,---,0.00,VWS V14.00,2013-05-11 02:13:00,
2013-05-10 22:14:00,64.6,57.9,27.79,SSW,202,0.0,0.0,79,0.00,,---,0.00,VWS V14.00,2013-05-11 02:14:00,
2013-05-10 22:15:00,64.6,57.9,27.79,West,270,0.0,0.0,79,0.00,,---,0.00,VWS V14.00,2013-05-11 02:15:00,
2013-05-10 22:16:00,64.6,57.9,27.79,West,270,0.0,0.0,79,0.00,,---,0.00,VWS V14.00,2013-05-11 02:16:00,
2013-05-10 22:18:00,64.6,57.9,27.79,North,0,0.0,2.9,79,0.00,,---,0.00,VWS V14.00,2013-05-11 02:18:00,
2013-05-10 22:19:00,64.4,58.1,27.79,NE,45,0.0,0.0,80,0.00,,---,0.00,VWS V14.00,2013-05-11 02:19:00,
2013-05-10 22:20:00,64.4,58.1,27.79,NE,45,0.0,0.0,80,0.00,,---,0.00,VWS V14.00,2013-05-11 02:20:00,
2013-05-10 22:21:00,64.4,58.1,27.79,WSW,248,1.1,1.1,80,0.00,,---,0.00,VWS V14.00,2013-05-11 02:21:00,
2013-05-10 22:22:00,64.4,58.1,27.79,WNW,292,1.1,1.1,80,0.00,,---,0.00,VWS V14.00,2013-05-11 02:22:00,
2013-05-10 22:24:00,64.4,57.8,27.79,SE,135,1.1,1.1,79,0.00,,---,0.00,VWS V14.00,2013-05-11 02:24:00,
2013-05-10 22:25:00,64.4,57.8,27.79,West,270,1.3,1.3,79,0.00,,---,0.00,VWS V14.00,2013-05-11 02:25:00,
2013-05-10 22:26:00,64.4,57.8,27.79,West,270,1.3,1.3,79,0.00,,---,0.00,VWS V14.00,2013-05-11 02:26:00,
2013-05-10 22:27:00,64.4,57.8,27.79,North,0,0.9,0.9,79,0.00,,---,0.00,VWS V14.00,2013-05-11 02:27:00,
2013-05-10 22:29:00,64.6,57.9,27.79,SSE,158,2.0,2.0,79,0.00,,---,0.00,VWS V14.00,2013-05-11 02:29:00,
2013-05-10 22:30:00,64.6,57.9,27.79,WSW,248,2.5,2.5,79,0.00,,---,0.00,VWS V14.00,2013-05-11 02:30:00,
2013-05-10 22:31:00,64.6,57.9,27.79,ESE,112,0.0,2.2,79,0.00,,---,0.00,VWS V14.00,2013-05-11 02:31:00,
2013-05-10 22:32:00,64.6,57.9,27.79,ESE,112,0.0,0.0,79,0.00,,---,0.00,VWS V14.00,2013-05-11 02:32:00,
2013-05-10 22:34:00,64.6,57.9,27.79,SSE,158,1.3,2.9,79,0.00,,---,0.00,VWS V14.00,2013-05-11 02:34:00,
2013-05-10 22:35:00,64.6,57.9,27.79,ENE,68,2.0,2.0,79,0.00,,---,0.00,VWS V14.00,2013-05-11 02:35:00,
2013-05-10 22:36:00,64.4,57.8,27.79,ESE,112,0.0,2.0,79,0.00,,---,0.00,VWS V14.00,2013-05-11 02:36:00,
2013-05-10 22:37:00,64.4,57.8,27.79,ESE,112,1.3,1.3,79,0.00,,---,0.00,VWS V14.00,2013-05-11 02:37:00,
2013-05-10 22:40:00,64.4,57.8,27.79,SE,135,0.9,0.9,79,0.00,,---,0.00,VWS V14.00,2013-05-11 02:40:00,
2013-05-10 22:41:00,64.4,57.8,27.79,WSW,248,2.7,2.7,79,0.00,,---,0.00,VWS V14.00,2013-05-11 02:41:00,
2013-05-10 22:42:00,64.2,57.6,27.79,ESE,112,2.5,2.5,79,0.00,,---,0.00,VWS V14.00,2013-05-11 02:42:00,
2013-05-10 22:44:00,64.2,57.6,27.79,NW,315,2.0,2.0,79,0.00,,---,0.00,VWS V14.00,2013-05-11 02:44:00,
2013-05-10 22:45:00,64.2,57.6,27.79,WNW,292,1.6,1.6,79,0.00,,---,0.00,VWS V14.00,2013-05-11 02:45:00,
2013-05-10 22:47:00,64.2,57.9,27.79,WNW,292,2.0,2.0,80,0.00,,---,0.00,VWS V14.00,2013-05-11 02:47:00,
2013-05-10 22:48:00,64.2,57.9,27.79,WNW,292,2.0,2.0,80,0.00,,---,0.00,VWS V14.00,2013-05-11 02:48:00,
2013-05-10 22:49:00,64.0,57.8,27.79,NNE,22,1.3,1.3,80,0.00,,---,0.00,VWS V14.00,2013-05-11 02:49:00,
2013-05-10 22:51:00,64.0,57.8,27.79,ENE,68,1.1,1.1,80,0.00,,---,0.00,VWS V14.00,2013-05-11 02:51:00,
2013-05-10 22:52:00,63.9,57.6,27.79,SSW,202,2.5,3.1,80,0.00,,---,0.00,VWS V14.00,2013-05-11 02:52:00,
2013-05-10 22:53:00,63.9,57.6,27.79,SSW,202,2.5,2.5,80,0.00,,---,0.00,VWS V14.00,2013-05-11 02:53:00,
2013-05-10 22:54:00,63.9,57.6,27.79,SSW,202,1.3,1.3,80,0.00,,---,0.00,VWS V14.00,2013-05-11 02:54:00,
2013-05-10 22:56:00,63.9,57.9,27.79,South,180,1.3,3.4,81,0.00,,---,0.00,VWS V14.00,2013-05-11 02:56:00,
2013-05-10 22:58:00,63.9,57.9,27.79,SSE,158,0.0,3.1,81,0.00,,---,0.00,VWS V14.00,2013-05-11 02:58:00,
2013-05-10 22:59:00,63.9,57.9,27.79,ESE,112,1.1,1.1,81,0.00,,---,0.00,VWS V14.00,2013-05-11 02:59:00,
2013-05-10 23:01:00,63.9,57.9,27.79,SSW,202,1.1,1.1,81,0.00,,---,0.00,VWS V14.00,2013-05-11 03:01:00,
2013-05-10 23:03:00,63.7,57.8,27.79,SSE,158,2.0,2.2,81,0.00,,---,0.00,VWS V14.00,2013-05-11 03:03:00,
2013-05-10 23:04:00,63.7,57.8,27.79,SSE,158,2.0,2.0,81,0.00,,---,0.00,VWS V14.00,2013-05-11 03:04:00,
2013-05-10 23:06:00,63.7,57.8,27.79,WSW,248,3.4,3.4,81,0.00,,---,0.00,VWS V14.00,2013-05-11 03:06:00,
2013-05-10 23:07:00,63.7,57.8,27.79,West,270,2.0,3.4,81,0.00,,---,0.00,VWS V14.00,2013-05-11 03:07:00,
2013-05-10 23:09:00,63.7,57.8,27.79,SSW,202,2.9,2.9,81,0.00,,---,0.00,VWS V14.00,2013-05-11 03:09:00,
2013-05-10 23:11:00,63.7,57.8,27.79,ESE,112,1.3,1.3,81,0.00,,---,0.00,VWS V14.00,2013-05-11 03:11:00,
2013-05-10 23:12:00,63.7,57.8,27.79,East,90,1.1,1.3,81,0.00,,---,0.00,VWS V14.00,2013-05-11 03:12:00,
2013-05-10 23:14:00,63.7,57.8,27.79,SSW,202,1.6,1.6,81,0.00,,---,0.00,VWS V14.00,2013-05-11 03:14:00,
2013-05-10 23:15:00,63.7,58.1,27.79,South,180,0.0,0.9,82,0.00,,---,0.00,VWS V14.00,2013-05-11 03:15:00,
2013-05-10 23:16:00,63.7,58.1,27.79,NNW,338,2.5,2.5,82,0.00,,---,0.00,VWS V14.00,2013-05-11 03:16:00,
2013-05-10 23:17:00,63.7,58.1,27.79,NE,45,2.2,2.2,82,0.00,,---,0.00,VWS V14.00,2013-05-11 03:17:00,
2013-05-10 23:19:00,63.9,58.3,27.79,NNW,338,1.1,1.1,82,0.00,,---,0.00,VWS V14.00,2013-05-11 03:19:00,
2013-05-10 23:20:00,63.9,58.3,27.79,NNE,22,1.3,1.3,82,0.00,,---,0.00,VWS V14.00,2013-05-11 03:20:00,
2013-05-10 23:22:00,63.9,58.3,27.79,ENE,68,2.2,2.2,82,0.00,,---,0.00,VWS V14.00,2013-05-11 03:22:00,
2013-05-10 23:23:00,63.9,58.3,27.79,East,90,1.1,2.2,82,0.00,,---,0.00,VWS V14.00,2013-05-11 03:23:00,
2013-05-10 23:24:00,63.7,58.1,27.79,NE,45,2.7,2.7,82,0.00,,---,0.00,VWS V14.00,2013-05-11 03:24:00,
2013-05-10 23:26:00,63.7,58.1,27.79,NNW,338,1.1,1.1,82,0.00,,---,0.00,VWS V14.00,2013-05-11 03:26:00,
2013-05-10 23:27:00,63.5,57.9,27.79,NE,45,1.1,1.1,82,0.00,,---,0.00,VWS V14.00,2013-05-11 03:27:00,
2013-05-10 23:28:00,63.5,57.9,27.79,ENE,68,0.0,0.0,82,0.00,,---,0.00,VWS V14.00,2013-05-11 03:28:00,
2013-05-10 23:29:00,63.5,57.9,27.79,NNE,22,0.0,0.0,82,0.00,,---,0.00,VWS V14.00,2013-05-11 03:29:00,
2013-05-10 23:30:00,63.5,57.9,27.79,North,0,0.0,0.0,82,0.00,,---,0.00,VWS V14.00,2013-05-11 03:30:00,
2013-05-10 23:31:00,63.5,57.9,27.79,NW,315,0.0,0.0,82,0.00,,---,0.00,VWS V14.00,2013-05-11 03:31:00,
2013-05-10 23:32:00,63.3,57.7,27.79,WNW,292,0.0,0.0,82,0.00,,---,0.00,VWS V14.00,2013-05-11 03:32:00,
2013-05-10 23:33:00,63.3,57.7,27.79,WSW,248,1.1,1.1,82,0.00,,---,0.00,VWS V14.00,2013-05-11 03:33:00,
2013-05-10 23:34:00,63.3,58.1,27.79,WNW,292,1.3,1.3,83,0.00,,---,0.00,VWS V14.00,2013-05-11 03:34:00,
2013-05-10 23:36:00,63.1,57.9,27.79,NNE,22,1.3,1.3,83,0.00,,---,0.00,VWS V14.00,2013-05-11 03:36:00,
2013-05-10 23:37:00,63.1,57.9,27.79,NE,45,0.0,0.0,83,0.00,,---,0.00,VWS V14.00,2013-05-11 03:37:00,
2013-05-10 23:38:00,63.1,57.9,27.79,NE,45,0.0,0.0,83,0.00,,---,0.00,VWS V14.00,2013-05-11 03:38:00,
2013-05-10 23:39:00,63.0,57.7,27.79,NE,45,1.3,1.3,83,0.00,,---,0.00,VWS V14.00,2013-05-11 03:39:00,
2013-05-10 23:41:00,63.0,57.7,27.79,NE,45,1.1,1.1,83,0.00,,---,0.00,VWS V14.00,2013-05-11 03:41:00,
2013-05-10 23:42:00,63.0,57.7,27.79,NNE,22,0.0,0.0,83,0.00,,---,0.00,VWS V14.00,2013-05-11 03:42:00,
2013-05-10 23:44:00,63.0,57.7,27.79,West,270,1.1,1.1,83,0.00,,---,0.00,VWS V14.00,2013-05-11 03:44:00,
2013-05-10 23:45:00,62.8,57.5,27.79,WSW,248,0.0,1.1,83,0.00,,---,0.00,VWS V14.00,2013-05-11 03:45:00,
2013-05-10 23:46:00,62.8,57.5,27.79,WNW,292,0.0,0.0,83,0.00,,---,0.00,VWS V14.00,2013-05-11 03:46:00,
2013-05-10 23:47:00,62.8,57.5,27.79,ENE,68,2.0,2.0,83,0.00,,---,0.00,VWS V14.00,2013-05-11 03:47:00,
2013-05-10 23:49:00,62.8,57.9,27.79,SSE,158,0.0,0.0,84,0.00,,---,0.00,VWS V14.00,2013-05-11 03:49:00,
2013-05-10 23:50:00,62.6,57.7,27.79,ESE,112,0.9,0.9,84,0.00,,---,0.00,VWS V14.00,2013-05-11 03:50:00,
2013-05-10 23:51:00,62.6,57.7,27.79,ESE,112,1.3,1.3,84,0.00,,---,0.00,VWS V14.00,2013-05-11 03:51:00,
2013-05-10 23:52:00,62.6,57.7,27.79,NNE,22,3.1,3.1,84,0.00,,---,0.00,VWS V14.00,2013-05-11 03:52:00,
2013-05-10 23:54:00,62.6,57.7,27.79,NE,45,0.0,0.0,84,0.00,,---,0.00,VWS V14.00,2013-05-11 03:54:00,
2013-05-10 23:55:00,62.6,58.0,27.79,NE,45,0.0,0.0,85,0.00,,---,0.00,VWS V14.00,2013-05-11 03:55:00,
2013-05-10 23:56:00,62.6,58.0,27.79,East,90,0.0,0.0,85,0.00,,---,0.00,VWS V14.00,2013-05-11 03:56:00,
2013-05-10 23:57:00,62.4,57.9,27.79,North,0,2.0,2.0,85,0.00,,---,0.00,VWS V14.00,2013-05-11 03:57:00,
2013-05-10 23:59:00,62.4,57.9,27.79,North,0,0.0,0.0,85,0.00,,---,0.00,VWS V14.00,2013-05-11 03:59:00,